<?xml version="1.0" encoding="UTF-8" standalone="no" ?>
<gpx xmlns="http://www.topografix.com/GPX/1/1" xmlns:xsi="http://www.w3.org/2001/XMLSchema-instance" xsi:schemaLocation="http://www.topografix.com/GPX/1/1 http://www.topografix.com/GPX/1/1/gpx.xsd" version="1.1" creator="VisuGPX - https://www.visugpx.com">
  <metadata>
    <name>refuge du bastan au refuge de l'oule par pic bastan, Néouvielle, par NATAKA</name>
  </metadata>
  <trk>
    <name><![CDATA[13907553-refuges bastan a l'oule par pic bastan]]></name>
    <trkseg>
      <trkpt lat="42.85327" lon="0.20893">
        <ele>2230</ele>
        <time>2021-11-05T11:09:01Z</time>
      </trkpt>
      <trkpt lat="42.85319" lon="0.20883">
        <ele>2228</ele>
        <time>2021-11-05T11:09:10Z</time>
      </trkpt>
      <trkpt lat="42.85311" lon="0.2087">
        <ele>2226</ele>
        <time>2021-11-05T11:09:20Z</time>
      </trkpt>
      <trkpt lat="42.85331" lon="0.20873">
        <ele>2228</ele>
        <time>2021-11-05T11:09:36Z</time>
      </trkpt>
      <trkpt lat="42.8536" lon="0.20871">
        <ele>2232</ele>
        <time>2021-11-05T11:09:59Z</time>
      </trkpt>
      <trkpt lat="42.85372" lon="0.20876">
        <ele>2234</ele>
        <time>2021-11-05T11:10:09Z</time>
      </trkpt>
      <trkpt lat="42.854" lon="0.20906">
        <ele>2239</ele>
        <time>2021-11-05T11:10:38Z</time>
      </trkpt>
      <trkpt lat="42.8544" lon="0.20928">
        <ele>2247</ele>
        <time>2021-11-05T11:11:12Z</time>
      </trkpt>
      <trkpt lat="42.85449" lon="0.20926">
        <ele>2249</ele>
        <time>2021-11-05T11:11:19Z</time>
      </trkpt>
      <trkpt lat="42.85453" lon="0.20911">
        <ele>2248</ele>
        <time>2021-11-05T11:11:29Z</time>
      </trkpt>
      <trkpt lat="42.85452" lon="0.20894">
        <ele>2249</ele>
        <time>2021-11-05T11:11:39Z</time>
      </trkpt>
      <trkpt lat="42.85453" lon="0.20887">
        <ele>2249</ele>
        <time>2021-11-05T11:11:43Z</time>
      </trkpt>
      <trkpt lat="42.85468" lon="0.20876">
        <ele>2254</ele>
        <time>2021-11-05T11:11:57Z</time>
      </trkpt>
      <trkpt lat="42.85503" lon="0.20858">
        <ele>2265</ele>
        <time>2021-11-05T11:12:27Z</time>
      </trkpt>
      <trkpt lat="42.85516" lon="0.20857">
        <ele>2266</ele>
        <time>2021-11-05T11:12:37Z</time>
      </trkpt>
      <trkpt lat="42.85521" lon="0.20847">
        <ele>2268</ele>
        <time>2021-11-05T11:12:44Z</time>
      </trkpt>
      <trkpt lat="42.85532" lon="0.2084">
        <ele>2270</ele>
        <time>2021-11-05T11:12:54Z</time>
      </trkpt>
      <trkpt lat="42.85535" lon="0.2083">
        <ele>2271</ele>
        <time>2021-11-05T11:13:00Z</time>
      </trkpt>
      <trkpt lat="42.85548" lon="0.20824">
        <ele>2273</ele>
        <time>2021-11-05T11:13:11Z</time>
      </trkpt>
      <trkpt lat="42.85564" lon="0.20805">
        <ele>2277</ele>
        <time>2021-11-05T11:13:28Z</time>
      </trkpt>
      <trkpt lat="42.85571" lon="0.20786">
        <ele>2280</ele>
        <time>2021-11-05T11:13:41Z</time>
      </trkpt>
      <trkpt lat="42.85596" lon="0.20756">
        <ele>2286</ele>
        <time>2021-11-05T11:14:07Z</time>
      </trkpt>
      <trkpt lat="42.85608" lon="0.20744">
        <ele>2288</ele>
        <time>2021-11-05T11:14:19Z</time>
      </trkpt>
      <trkpt lat="42.8563" lon="0.20738">
        <ele>2290</ele>
        <time>2021-11-05T11:14:37Z</time>
      </trkpt>
      <trkpt lat="42.85657" lon="0.20718">
        <ele>2294</ele>
        <time>2021-11-05T11:15:02Z</time>
      </trkpt>
      <trkpt lat="42.85669" lon="0.20712">
        <ele>2296</ele>
        <time>2021-11-05T11:15:12Z</time>
      </trkpt>
      <trkpt lat="42.85673" lon="0.20712">
        <ele>2297</ele>
        <time>2021-11-05T11:15:15Z</time>
      </trkpt>
      <trkpt lat="42.85699" lon="0.20737">
        <ele>2296</ele>
        <time>2021-11-05T11:15:41Z</time>
      </trkpt>
      <trkpt lat="42.85709" lon="0.20737">
        <ele>2297</ele>
        <time>2021-11-05T11:15:49Z</time>
      </trkpt>
      <trkpt lat="42.85716" lon="0.20731">
        <ele>2299</ele>
        <time>2021-11-05T11:15:55Z</time>
      </trkpt>
      <trkpt lat="42.85717" lon="0.20725">
        <ele>2300</ele>
        <time>2021-11-05T11:15:59Z</time>
      </trkpt>
      <trkpt lat="42.85719" lon="0.20724">
        <ele>2301</ele>
        <time>2021-11-05T11:16:01Z</time>
      </trkpt>
      <trkpt lat="42.85722" lon="0.20729">
        <ele>2300</ele>
        <time>2021-11-05T11:16:04Z</time>
      </trkpt>
      <trkpt lat="42.85735" lon="0.20728">
        <ele>2302</ele>
        <time>2021-11-05T11:16:15Z</time>
      </trkpt>
      <trkpt lat="42.8574" lon="0.20746">
        <ele>2301</ele>
        <time>2021-11-05T11:16:26Z</time>
      </trkpt>
      <trkpt lat="42.85745" lon="0.20752">
        <ele>2301</ele>
        <time>2021-11-05T11:16:31Z</time>
      </trkpt>
      <trkpt lat="42.8575" lon="0.20752">
        <ele>2302</ele>
        <time>2021-11-05T11:16:35Z</time>
      </trkpt>
      <trkpt lat="42.85765" lon="0.20739">
        <ele>2305</ele>
        <time>2021-11-05T11:16:50Z</time>
      </trkpt>
      <trkpt lat="42.85769" lon="0.20741">
        <ele>2306</ele>
        <time>2021-11-05T11:16:53Z</time>
      </trkpt>
      <trkpt lat="42.85771" lon="0.20744">
        <ele>2306</ele>
        <time>2021-11-05T11:16:55Z</time>
      </trkpt>
      <trkpt lat="42.85776" lon="0.20748">
        <ele>2306</ele>
        <time>2021-11-05T11:17:00Z</time>
      </trkpt>
      <trkpt lat="42.85786" lon="0.20748">
        <ele>2307</ele>
        <time>2021-11-05T11:17:08Z</time>
      </trkpt>
      <trkpt lat="42.85791" lon="0.20747">
        <ele>2308</ele>
        <time>2021-11-05T11:17:12Z</time>
      </trkpt>
      <trkpt lat="42.85793" lon="0.20742">
        <ele>2309</ele>
        <time>2021-11-05T11:17:15Z</time>
      </trkpt>
      <trkpt lat="42.85798" lon="0.20739">
        <ele>2310</ele>
        <time>2021-11-05T11:17:20Z</time>
      </trkpt>
      <trkpt lat="42.85802" lon="0.20739">
        <ele>2310</ele>
        <time>2021-11-05T11:17:23Z</time>
      </trkpt>
      <trkpt lat="42.8581" lon="0.20734">
        <ele>2312</ele>
        <time>2021-11-05T11:17:30Z</time>
      </trkpt>
      <trkpt lat="42.85818" lon="0.20734">
        <ele>2313</ele>
        <time>2021-11-05T11:17:37Z</time>
      </trkpt>
      <trkpt lat="42.85822" lon="0.20735">
        <ele>2314</ele>
        <time>2021-11-05T11:17:40Z</time>
      </trkpt>
      <trkpt lat="42.85825" lon="0.20739">
        <ele>2314</ele>
        <time>2021-11-05T11:17:43Z</time>
      </trkpt>
      <trkpt lat="42.85834" lon="0.20743">
        <ele>2315</ele>
        <time>2021-11-05T11:17:51Z</time>
      </trkpt>
      <trkpt lat="42.85847" lon="0.20742">
        <ele>2316</ele>
        <time>2021-11-05T11:18:01Z</time>
      </trkpt>
      <trkpt lat="42.85855" lon="0.20744">
        <ele>2316</ele>
        <time>2021-11-05T11:18:08Z</time>
      </trkpt>
      <trkpt lat="42.85871" lon="0.20758">
        <ele>2316</ele>
        <time>2021-11-05T11:18:23Z</time>
      </trkpt>
      <trkpt lat="42.85876" lon="0.20759">
        <ele>2317</ele>
        <time>2021-11-05T11:18:27Z</time>
      </trkpt>
      <trkpt lat="42.85897" lon="0.20752">
        <ele>2319</ele>
        <time>2021-11-05T11:18:44Z</time>
      </trkpt>
      <trkpt lat="42.85902" lon="0.20751">
        <ele>2320</ele>
        <time>2021-11-05T11:18:48Z</time>
      </trkpt>
      <trkpt lat="42.85908" lon="0.20754">
        <ele>2320</ele>
        <time>2021-11-05T11:18:53Z</time>
      </trkpt>
      <trkpt lat="42.85914" lon="0.20751">
        <ele>2321</ele>
        <time>2021-11-05T11:18:59Z</time>
      </trkpt>
      <trkpt lat="42.85919" lon="0.20742">
        <ele>2322</ele>
        <time>2021-11-05T11:19:05Z</time>
      </trkpt>
      <trkpt lat="42.85924" lon="0.2074">
        <ele>2322</ele>
        <time>2021-11-05T11:19:09Z</time>
      </trkpt>
      <trkpt lat="42.85929" lon="0.20733">
        <ele>2323</ele>
        <time>2021-11-05T11:19:15Z</time>
      </trkpt>
      <trkpt lat="42.85928" lon="0.20727">
        <ele>2324</ele>
        <time>2021-11-05T11:19:19Z</time>
      </trkpt>
      <trkpt lat="42.85932" lon="0.20718">
        <ele>2325</ele>
        <time>2021-11-05T11:19:25Z</time>
      </trkpt>
      <trkpt lat="42.8595" lon="0.20697">
        <ele>2328</ele>
        <time>2021-11-05T11:19:44Z</time>
      </trkpt>
      <trkpt lat="42.85964" lon="0.20693">
        <ele>2329</ele>
        <time>2021-11-05T11:19:55Z</time>
      </trkpt>
      <trkpt lat="42.85966" lon="0.2069">
        <ele>2330</ele>
        <time>2021-11-05T11:19:58Z</time>
      </trkpt>
      <trkpt lat="42.85969" lon="0.20691">
        <ele>2330</ele>
        <time>2021-11-05T11:20:00Z</time>
      </trkpt>
      <trkpt lat="42.85971" lon="0.20688">
        <ele>2330</ele>
        <time>2021-11-05T11:20:02Z</time>
      </trkpt>
      <trkpt lat="42.8598" lon="0.20687">
        <ele>2331</ele>
        <time>2021-11-05T11:20:10Z</time>
      </trkpt>
      <trkpt lat="42.85986" lon="0.20684">
        <ele>2332</ele>
        <time>2021-11-05T11:20:15Z</time>
      </trkpt>
      <trkpt lat="42.85989" lon="0.2068">
        <ele>2333</ele>
        <time>2021-11-05T11:20:18Z</time>
      </trkpt>
      <trkpt lat="42.85998" lon="0.20677">
        <ele>2334</ele>
        <time>2021-11-05T11:20:26Z</time>
      </trkpt>
      <trkpt lat="42.86014" lon="0.20683">
        <ele>2338</ele>
        <time>2021-11-05T11:20:39Z</time>
      </trkpt>
      <trkpt lat="42.86023" lon="0.20693">
        <ele>2339</ele>
        <time>2021-11-05T11:20:48Z</time>
      </trkpt>
      <trkpt lat="42.86032" lon="0.20693">
        <ele>2342</ele>
        <time>2021-11-05T11:20:55Z</time>
      </trkpt>
      <trkpt lat="42.86041" lon="0.20683">
        <ele>2345</ele>
        <time>2021-11-05T11:21:05Z</time>
      </trkpt>
      <trkpt lat="42.86051" lon="0.20682">
        <ele>2348</ele>
        <time>2021-11-05T11:21:13Z</time>
      </trkpt>
      <trkpt lat="42.86055" lon="0.20686">
        <ele>2349</ele>
        <time>2021-11-05T11:21:17Z</time>
      </trkpt>
      <trkpt lat="42.86072" lon="0.2069">
        <ele>2354</ele>
        <time>2021-11-05T11:21:30Z</time>
      </trkpt>
      <trkpt lat="42.86075" lon="0.20698">
        <ele>2354</ele>
        <time>2021-11-05T11:21:36Z</time>
      </trkpt>
      <trkpt lat="42.86079" lon="0.20698">
        <ele>2355</ele>
        <time>2021-11-05T11:21:39Z</time>
      </trkpt>
      <trkpt lat="42.86086" lon="0.20694">
        <ele>2358</ele>
        <time>2021-11-05T11:21:45Z</time>
      </trkpt>
      <trkpt lat="42.86089" lon="0.20697">
        <ele>2359</ele>
        <time>2021-11-05T11:21:48Z</time>
      </trkpt>
      <trkpt lat="42.86097" lon="0.20698">
        <ele>2362</ele>
        <time>2021-11-05T11:21:54Z</time>
      </trkpt>
      <trkpt lat="42.86099" lon="0.207">
        <ele>2362</ele>
        <time>2021-11-05T11:21:56Z</time>
      </trkpt>
      <trkpt lat="42.86101" lon="0.207">
        <ele>2363</ele>
        <time>2021-11-05T11:21:58Z</time>
      </trkpt>
      <trkpt lat="42.86104" lon="0.2069">
        <ele>2365</ele>
        <time>2021-11-05T11:22:04Z</time>
      </trkpt>
      <trkpt lat="42.86118" lon="0.20643">
        <ele>2370</ele>
        <time>2021-11-05T11:22:34Z</time>
      </trkpt>
      <trkpt lat="42.86137" lon="0.2065">
        <ele>2376</ele>
        <time>2021-11-05T11:22:50Z</time>
      </trkpt>
      <trkpt lat="42.86154" lon="0.20667">
        <ele>2382</ele>
        <time>2021-11-05T11:23:07Z</time>
      </trkpt>
      <trkpt lat="42.86161" lon="0.20679">
        <ele>2384</ele>
        <time>2021-11-05T11:23:16Z</time>
      </trkpt>
      <trkpt lat="42.86167" lon="0.20686">
        <ele>2386</ele>
        <time>2021-11-05T11:23:22Z</time>
      </trkpt>
      <trkpt lat="42.86173" lon="0.20688">
        <ele>2387</ele>
        <time>2021-11-05T11:23:27Z</time>
      </trkpt>
      <trkpt lat="42.86177" lon="0.20695">
        <ele>2387</ele>
        <time>2021-11-05T11:23:32Z</time>
      </trkpt>
      <trkpt lat="42.86199" lon="0.20697">
        <ele>2389</ele>
        <time>2021-11-05T11:23:50Z</time>
      </trkpt>
      <trkpt lat="42.86208" lon="0.20694">
        <ele>2390</ele>
        <time>2021-11-05T11:23:57Z</time>
      </trkpt>
      <trkpt lat="42.86215" lon="0.20696">
        <ele>2390</ele>
        <time>2021-11-05T11:24:03Z</time>
      </trkpt>
      <trkpt lat="42.86226" lon="0.20697">
        <ele>2391</ele>
        <time>2021-11-05T11:24:12Z</time>
      </trkpt>
      <trkpt lat="42.86246" lon="0.20705">
        <ele>2394</ele>
        <time>2021-11-05T11:24:29Z</time>
      </trkpt>
      <trkpt lat="42.86248" lon="0.20708">
        <ele>2394</ele>
        <time>2021-11-05T11:24:31Z</time>
      </trkpt>
      <trkpt lat="42.86262" lon="0.20712">
        <ele>2397</ele>
        <time>2021-11-05T11:24:42Z</time>
      </trkpt>
      <trkpt lat="42.86267" lon="0.20711">
        <ele>2397</ele>
        <time>2021-11-05T11:24:46Z</time>
      </trkpt>
      <trkpt lat="42.86271" lon="0.20718">
        <ele>2399</ele>
        <time>2021-11-05T11:24:52Z</time>
      </trkpt>
      <trkpt lat="42.86288" lon="0.20727">
        <ele>2402</ele>
        <time>2021-11-05T11:25:06Z</time>
      </trkpt>
      <trkpt lat="42.86292" lon="0.20722">
        <ele>2402</ele>
        <time>2021-11-05T11:25:11Z</time>
      </trkpt>
      <trkpt lat="42.86298" lon="0.20723">
        <ele>2403</ele>
        <time>2021-11-05T11:25:15Z</time>
      </trkpt>
      <trkpt lat="42.86305" lon="0.20714">
        <ele>2404</ele>
        <time>2021-11-05T11:25:23Z</time>
      </trkpt>
      <trkpt lat="42.86311" lon="0.20712">
        <ele>2404</ele>
        <time>2021-11-05T11:25:28Z</time>
      </trkpt>
      <trkpt lat="42.86331" lon="0.20721">
        <ele>2408</ele>
        <time>2021-11-05T11:25:45Z</time>
      </trkpt>
      <trkpt lat="42.86342" lon="0.2072">
        <ele>2409</ele>
        <time>2021-11-05T11:25:54Z</time>
      </trkpt>
      <trkpt lat="42.86347" lon="0.20723">
        <ele>2410</ele>
        <time>2021-11-05T11:25:58Z</time>
      </trkpt>
      <trkpt lat="42.86368" lon="0.20706">
        <ele>2411</ele>
        <time>2021-11-05T11:26:18Z</time>
      </trkpt>
      <trkpt lat="42.86373" lon="0.207">
        <ele>2411</ele>
        <time>2021-11-05T11:26:23Z</time>
      </trkpt>
      <trkpt lat="42.86378" lon="0.20698">
        <ele>2411</ele>
        <time>2021-11-05T11:26:27Z</time>
      </trkpt>
      <trkpt lat="42.86389" lon="0.20701">
        <ele>2412</ele>
        <time>2021-11-05T11:26:36Z</time>
      </trkpt>
      <trkpt lat="42.86393" lon="0.20699">
        <ele>2413</ele>
        <time>2021-11-05T11:26:40Z</time>
      </trkpt>
      <trkpt lat="42.86401" lon="0.20699">
        <ele>2413</ele>
        <time>2021-11-05T11:26:46Z</time>
      </trkpt>
      <trkpt lat="42.86407" lon="0.20696">
        <ele>2414</ele>
        <time>2021-11-05T11:26:51Z</time>
      </trkpt>
      <trkpt lat="42.86416" lon="0.20698">
        <ele>2415</ele>
        <time>2021-11-05T11:26:58Z</time>
      </trkpt>
      <trkpt lat="42.8642" lon="0.20696">
        <ele>2415</ele>
        <time>2021-11-05T11:27:02Z</time>
      </trkpt>
      <trkpt lat="42.86426" lon="0.20699">
        <ele>2415</ele>
        <time>2021-11-05T11:27:07Z</time>
      </trkpt>
      <trkpt lat="42.86437" lon="0.207">
        <ele>2416</ele>
        <time>2021-11-05T11:27:16Z</time>
      </trkpt>
      <trkpt lat="42.86452" lon="0.20706">
        <ele>2418</ele>
        <time>2021-11-05T11:27:28Z</time>
      </trkpt>
      <trkpt lat="42.86461" lon="0.20702">
        <ele>2418</ele>
        <time>2021-11-05T11:27:36Z</time>
      </trkpt>
      <trkpt lat="42.86473" lon="0.20703">
        <ele>2419</ele>
        <time>2021-11-05T11:27:46Z</time>
      </trkpt>
      <trkpt lat="42.86477" lon="0.20698">
        <ele>2419</ele>
        <time>2021-11-05T11:27:50Z</time>
      </trkpt>
      <trkpt lat="42.86482" lon="0.20698">
        <ele>2420</ele>
        <time>2021-11-05T11:27:54Z</time>
      </trkpt>
      <trkpt lat="42.86495" lon="0.20678">
        <ele>2419</ele>
        <time>2021-11-05T11:28:10Z</time>
      </trkpt>
      <trkpt lat="42.86505" lon="0.20674">
        <ele>2421</ele>
        <time>2021-11-05T11:28:18Z</time>
      </trkpt>
      <trkpt lat="42.86511" lon="0.20666">
        <ele>2422</ele>
        <time>2021-11-05T11:28:25Z</time>
      </trkpt>
      <trkpt lat="42.86519" lon="0.20666">
        <ele>2424</ele>
        <time>2021-11-05T11:28:31Z</time>
      </trkpt>
      <trkpt lat="42.86524" lon="0.20655">
        <ele>2426</ele>
        <time>2021-11-05T11:28:39Z</time>
      </trkpt>
      <trkpt lat="42.8653" lon="0.20654">
        <ele>2428</ele>
        <time>2021-11-05T11:28:43Z</time>
      </trkpt>
      <trkpt lat="42.86537" lon="0.20658">
        <ele>2429</ele>
        <time>2021-11-05T11:28:50Z</time>
      </trkpt>
      <trkpt lat="42.86539" lon="0.20656">
        <ele>2430</ele>
        <time>2021-11-05T11:28:52Z</time>
      </trkpt>
      <trkpt lat="42.86542" lon="0.20657">
        <ele>2430</ele>
        <time>2021-11-05T11:28:54Z</time>
      </trkpt>
      <trkpt lat="42.86549" lon="0.20653">
        <ele>2433</ele>
        <time>2021-11-05T11:29:00Z</time>
      </trkpt>
      <trkpt lat="42.86559" lon="0.20651">
        <ele>2435</ele>
        <time>2021-11-05T11:29:08Z</time>
      </trkpt>
      <trkpt lat="42.86575" lon="0.2066">
        <ele>2438</ele>
        <time>2021-11-05T11:29:22Z</time>
      </trkpt>
      <trkpt lat="42.86577" lon="0.20663">
        <ele>2439</ele>
        <time>2021-11-05T11:29:24Z</time>
      </trkpt>
      <trkpt lat="42.86596" lon="0.20666">
        <ele>2446</ele>
        <time>2021-11-05T11:29:40Z</time>
      </trkpt>
      <trkpt lat="42.86599" lon="0.20672">
        <ele>2449</ele>
        <time>2021-11-05T11:29:44Z</time>
      </trkpt>
      <trkpt lat="42.86604" lon="0.20673">
        <ele>2452</ele>
        <time>2021-11-05T11:29:48Z</time>
      </trkpt>
      <trkpt lat="42.86606" lon="0.20676">
        <ele>2454</ele>
        <time>2021-11-05T11:29:50Z</time>
      </trkpt>
      <trkpt lat="42.86608" lon="0.20676">
        <ele>2455</ele>
        <time>2021-11-05T11:29:52Z</time>
      </trkpt>
      <trkpt lat="42.86609" lon="0.20681">
        <ele>2457</ele>
        <time>2021-11-05T11:29:55Z</time>
      </trkpt>
      <trkpt lat="42.86618" lon="0.20682">
        <ele>2462</ele>
        <time>2021-11-05T11:30:02Z</time>
      </trkpt>
      <trkpt lat="42.86617" lon="0.20688">
        <ele>2464</ele>
        <time>2021-11-05T11:30:06Z</time>
      </trkpt>
      <trkpt lat="42.8663" lon="0.20693">
        <ele>2472</ele>
        <time>2021-11-05T11:30:17Z</time>
      </trkpt>
      <trkpt lat="42.86645" lon="0.20682">
        <ele>2476</ele>
        <time>2021-11-05T11:30:30Z</time>
      </trkpt>
      <trkpt lat="42.86668" lon="0.2066">
        <ele>2480</ele>
        <time>2021-11-05T11:30:53Z</time>
      </trkpt>
      <trkpt lat="42.8667" lon="0.2066">
        <ele>2481</ele>
        <time>2021-11-05T11:30:54Z</time>
      </trkpt>
      <trkpt lat="42.86669" lon="0.20664">
        <ele>2480</ele>
        <time>2021-11-05T11:30:57Z</time>
      </trkpt>
      <trkpt lat="42.86671" lon="0.20667">
        <ele>2481</ele>
        <time>2021-11-05T11:30:59Z</time>
      </trkpt>
      <trkpt lat="42.86674" lon="0.20668">
        <ele>2481</ele>
        <time>2021-11-05T11:31:02Z</time>
      </trkpt>
      <trkpt lat="42.86678" lon="0.20666">
        <ele>2481</ele>
        <time>2021-11-05T11:31:05Z</time>
      </trkpt>
      <trkpt lat="42.86683" lon="0.2066">
        <ele>2482</ele>
        <time>2021-11-05T11:31:10Z</time>
      </trkpt>
      <trkpt lat="42.86684" lon="0.2065">
        <ele>2482</ele>
        <time>2021-11-05T11:31:16Z</time>
      </trkpt>
      <trkpt lat="42.86686" lon="0.20651">
        <ele>2482</ele>
        <time>2021-11-05T11:31:18Z</time>
      </trkpt>
      <trkpt lat="42.86687" lon="0.2065">
        <ele>2482</ele>
        <time>2021-11-05T11:31:19Z</time>
      </trkpt>
      <trkpt lat="42.86686" lon="0.20639">
        <ele>2482</ele>
        <time>2021-11-05T11:31:26Z</time>
      </trkpt>
      <trkpt lat="42.86689" lon="0.20638">
        <ele>2483</ele>
        <time>2021-11-05T11:31:28Z</time>
      </trkpt>
      <trkpt lat="42.86704" lon="0.20642">
        <ele>2484</ele>
        <time>2021-11-05T11:31:40Z</time>
      </trkpt>
      <trkpt lat="42.86706" lon="0.20646">
        <ele>2484</ele>
        <time>2021-11-05T11:31:43Z</time>
      </trkpt>
      <trkpt lat="42.86712" lon="0.20648">
        <ele>2485</ele>
        <time>2021-11-05T11:31:48Z</time>
      </trkpt>
      <trkpt lat="42.86716" lon="0.20641">
        <ele>2485</ele>
        <time>2021-11-05T11:31:53Z</time>
      </trkpt>
      <trkpt lat="42.86717" lon="0.20641">
        <ele>2485</ele>
        <time>2021-11-05T11:31:54Z</time>
      </trkpt>
      <trkpt lat="42.86718" lon="0.20626">
        <ele>2485</ele>
        <time>2021-11-05T11:32:03Z</time>
      </trkpt>
      <trkpt lat="42.86719" lon="0.2062">
        <ele>2485</ele>
        <time>2021-11-05T11:32:07Z</time>
      </trkpt>
      <trkpt lat="42.86716" lon="0.20617">
        <ele>2485</ele>
        <time>2021-11-05T11:32:10Z</time>
      </trkpt>
      <trkpt lat="42.86717" lon="0.20604">
        <ele>2485</ele>
        <time>2021-11-05T11:32:17Z</time>
      </trkpt>
      <trkpt lat="42.86715" lon="0.20597">
        <ele>2484</ele>
        <time>2021-11-05T11:32:22Z</time>
      </trkpt>
      <trkpt lat="42.86717" lon="0.20593">
        <ele>2485</ele>
        <time>2021-11-05T11:32:24Z</time>
      </trkpt>
      <trkpt lat="42.86715" lon="0.20589">
        <ele>2484</ele>
        <time>2021-11-05T11:32:27Z</time>
      </trkpt>
      <trkpt lat="42.86715" lon="0.20582">
        <ele>2485</ele>
        <time>2021-11-05T11:32:31Z</time>
      </trkpt>
      <trkpt lat="42.86712" lon="0.20579">
        <ele>2486</ele>
        <time>2021-11-05T11:32:34Z</time>
      </trkpt>
      <trkpt lat="42.86715" lon="0.20572">
        <ele>2488</ele>
        <time>2021-11-05T11:32:39Z</time>
      </trkpt>
      <trkpt lat="42.86711" lon="0.20565">
        <ele>2490</ele>
        <time>2021-11-05T11:32:44Z</time>
      </trkpt>
      <trkpt lat="42.86701" lon="0.20536">
        <ele>2500</ele>
        <time>2021-11-05T11:33:03Z</time>
      </trkpt>
      <trkpt lat="42.86698" lon="0.20506">
        <ele>2510</ele>
        <time>2021-11-05T11:33:21Z</time>
      </trkpt>
      <trkpt lat="42.86701" lon="0.20499">
        <ele>2512</ele>
        <time>2021-11-05T11:33:26Z</time>
      </trkpt>
      <trkpt lat="42.86696" lon="0.20437">
        <ele>2532</ele>
        <time>2021-11-05T11:34:02Z</time>
      </trkpt>
      <trkpt lat="42.86698" lon="0.20428">
        <ele>2536</ele>
        <time>2021-11-05T11:34:08Z</time>
      </trkpt>
      <trkpt lat="42.86691" lon="0.20359">
        <ele>2562</ele>
        <time>2021-11-05T11:34:49Z</time>
      </trkpt>
      <trkpt lat="42.86679" lon="0.20335">
        <ele>2571</ele>
        <time>2021-11-05T11:35:06Z</time>
      </trkpt>
      <trkpt lat="42.86674" lon="0.20313">
        <ele>2579</ele>
        <time>2021-11-05T11:35:19Z</time>
      </trkpt>
      <trkpt lat="42.86673" lon="0.20303">
        <ele>2583</ele>
        <time>2021-11-05T11:35:25Z</time>
      </trkpt>
      <trkpt lat="42.86683" lon="0.20308">
        <ele>2581</ele>
        <time>2021-11-05T11:35:34Z</time>
      </trkpt>
      <trkpt lat="42.86682" lon="0.2029">
        <ele>2588</ele>
        <time>2021-11-05T11:35:44Z</time>
      </trkpt>
      <trkpt lat="42.86696" lon="0.20292">
        <ele>2586</ele>
        <time>2021-11-05T11:35:56Z</time>
      </trkpt>
      <trkpt lat="42.86702" lon="0.20234">
        <ele>2603</ele>
        <time>2021-11-05T11:36:30Z</time>
      </trkpt>
      <trkpt lat="42.86693" lon="0.20201">
        <ele>2612</ele>
        <time>2021-11-05T11:36:51Z</time>
      </trkpt>
      <trkpt lat="42.8669" lon="0.20188">
        <ele>2616</ele>
        <time>2021-11-05T11:36:59Z</time>
      </trkpt>
      <trkpt lat="42.86689" lon="0.20173">
        <ele>2620</ele>
        <time>2021-11-05T11:37:07Z</time>
      </trkpt>
      <trkpt lat="42.86681" lon="0.20156">
        <ele>2625</ele>
        <time>2021-11-05T11:37:19Z</time>
      </trkpt>
      <trkpt lat="42.86668" lon="0.20145">
        <ele>2632</ele>
        <time>2021-11-05T11:37:32Z</time>
      </trkpt>
      <trkpt lat="42.86659" lon="0.20134">
        <ele>2635</ele>
        <time>2021-11-05T11:37:41Z</time>
      </trkpt>
      <trkpt lat="42.86655" lon="0.20121">
        <ele>2637</ele>
        <time>2021-11-05T11:37:50Z</time>
      </trkpt>
      <trkpt lat="42.86654" lon="0.20091">
        <ele>2643</ele>
        <time>2021-11-05T11:38:07Z</time>
      </trkpt>
      <trkpt lat="42.86646" lon="0.2007">
        <ele>2645</ele>
        <time>2021-11-05T11:38:21Z</time>
      </trkpt>
      <trkpt lat="42.86642" lon="0.20057">
        <ele>2643</ele>
        <time>2021-11-05T11:38:29Z</time>
      </trkpt>
      <trkpt lat="42.8663" lon="0.20038">
        <ele>2644</ele>
        <time>2021-11-05T11:38:44Z</time>
      </trkpt>
      <trkpt lat="42.86626" lon="0.20029">
        <ele>2644</ele>
        <time>2021-11-05T11:38:50Z</time>
      </trkpt>
      <trkpt lat="42.8662" lon="0.20025">
        <ele>2646</ele>
        <time>2021-11-05T11:38:56Z</time>
      </trkpt>
      <trkpt lat="42.86613" lon="0.2003">
        <ele>2651</ele>
        <time>2021-11-05T11:39:02Z</time>
      </trkpt>
      <trkpt lat="42.86595" lon="0.20078">
        <ele>2668</ele>
        <time>2021-11-05T11:39:34Z</time>
      </trkpt>
      <trkpt lat="42.86613" lon="0.2003">
        <ele>2651</ele>
        <time>2021-11-05T11:40:05Z</time>
      </trkpt>
      <trkpt lat="42.8662" lon="0.20025">
        <ele>2646</ele>
        <time>2021-11-05T11:40:11Z</time>
      </trkpt>
      <trkpt lat="42.86626" lon="0.20029">
        <ele>2644</ele>
        <time>2021-11-05T11:40:17Z</time>
      </trkpt>
      <trkpt lat="42.8663" lon="0.20038">
        <ele>2644</ele>
        <time>2021-11-05T11:40:23Z</time>
      </trkpt>
      <trkpt lat="42.86642" lon="0.20057">
        <ele>2643</ele>
        <time>2021-11-05T11:40:38Z</time>
      </trkpt>
      <trkpt lat="42.86646" lon="0.2007">
        <ele>2645</ele>
        <time>2021-11-05T11:40:46Z</time>
      </trkpt>
      <trkpt lat="42.86654" lon="0.20091">
        <ele>2643</ele>
        <time>2021-11-05T11:41:00Z</time>
      </trkpt>
      <trkpt lat="42.86655" lon="0.20121">
        <ele>2637</ele>
        <time>2021-11-05T11:41:18Z</time>
      </trkpt>
      <trkpt lat="42.86659" lon="0.20134">
        <ele>2635</ele>
        <time>2021-11-05T11:41:26Z</time>
      </trkpt>
      <trkpt lat="42.86668" lon="0.20145">
        <ele>2632</ele>
        <time>2021-11-05T11:41:35Z</time>
      </trkpt>
      <trkpt lat="42.86681" lon="0.20156">
        <ele>2625</ele>
        <time>2021-11-05T11:41:48Z</time>
      </trkpt>
      <trkpt lat="42.86689" lon="0.20173">
        <ele>2620</ele>
        <time>2021-11-05T11:42:00Z</time>
      </trkpt>
      <trkpt lat="42.8669" lon="0.20188">
        <ele>2616</ele>
        <time>2021-11-05T11:42:08Z</time>
      </trkpt>
      <trkpt lat="42.86693" lon="0.20201">
        <ele>2612</ele>
        <time>2021-11-05T11:42:16Z</time>
      </trkpt>
      <trkpt lat="42.86702" lon="0.20234">
        <ele>2603</ele>
        <time>2021-11-05T11:42:37Z</time>
      </trkpt>
      <trkpt lat="42.86696" lon="0.20292">
        <ele>2586</ele>
        <time>2021-11-05T11:43:11Z</time>
      </trkpt>
      <trkpt lat="42.86682" lon="0.2029">
        <ele>2588</ele>
        <time>2021-11-05T11:43:23Z</time>
      </trkpt>
      <trkpt lat="42.86683" lon="0.20308">
        <ele>2581</ele>
        <time>2021-11-05T11:43:33Z</time>
      </trkpt>
      <trkpt lat="42.86673" lon="0.20303">
        <ele>2583</ele>
        <time>2021-11-05T11:43:42Z</time>
      </trkpt>
      <trkpt lat="42.86674" lon="0.20313">
        <ele>2579</ele>
        <time>2021-11-05T11:43:48Z</time>
      </trkpt>
      <trkpt lat="42.86679" lon="0.20335">
        <ele>2571</ele>
        <time>2021-11-05T11:44:01Z</time>
      </trkpt>
      <trkpt lat="42.86691" lon="0.20359">
        <ele>2562</ele>
        <time>2021-11-05T11:44:18Z</time>
      </trkpt>
      <trkpt lat="42.86698" lon="0.20428">
        <ele>2536</ele>
        <time>2021-11-05T11:44:59Z</time>
      </trkpt>
      <trkpt lat="42.86696" lon="0.20437">
        <ele>2532</ele>
        <time>2021-11-05T11:45:05Z</time>
      </trkpt>
      <trkpt lat="42.86701" lon="0.20499">
        <ele>2512</ele>
        <time>2021-11-05T11:45:41Z</time>
      </trkpt>
      <trkpt lat="42.86698" lon="0.20506">
        <ele>2510</ele>
        <time>2021-11-05T11:45:46Z</time>
      </trkpt>
      <trkpt lat="42.86701" lon="0.20536">
        <ele>2500</ele>
        <time>2021-11-05T11:46:04Z</time>
      </trkpt>
      <trkpt lat="42.86711" lon="0.20565">
        <ele>2490</ele>
        <time>2021-11-05T11:46:23Z</time>
      </trkpt>
      <trkpt lat="42.86715" lon="0.20572">
        <ele>2488</ele>
        <time>2021-11-05T11:46:28Z</time>
      </trkpt>
      <trkpt lat="42.86712" lon="0.20579">
        <ele>2486</ele>
        <time>2021-11-05T11:46:33Z</time>
      </trkpt>
      <trkpt lat="42.86715" lon="0.20582">
        <ele>2485</ele>
        <time>2021-11-05T11:46:36Z</time>
      </trkpt>
      <trkpt lat="42.86715" lon="0.20589">
        <ele>2484</ele>
        <time>2021-11-05T11:46:40Z</time>
      </trkpt>
      <trkpt lat="42.86717" lon="0.20593">
        <ele>2485</ele>
        <time>2021-11-05T11:46:43Z</time>
      </trkpt>
      <trkpt lat="42.86722" lon="0.20585">
        <ele>2485</ele>
        <time>2021-11-05T11:46:49Z</time>
      </trkpt>
      <trkpt lat="42.86729" lon="0.20569">
        <ele>2490</ele>
        <time>2021-11-05T11:47:00Z</time>
      </trkpt>
      <trkpt lat="42.86735" lon="0.2053">
        <ele>2503</ele>
        <time>2021-11-05T11:47:23Z</time>
      </trkpt>
      <trkpt lat="42.86756" lon="0.20485">
        <ele>2515</ele>
        <time>2021-11-05T11:47:54Z</time>
      </trkpt>
      <trkpt lat="42.86778" lon="0.20458">
        <ele>2512</ele>
        <time>2021-11-05T11:48:18Z</time>
      </trkpt>
      <trkpt lat="42.86784" lon="0.20445">
        <ele>2513</ele>
        <time>2021-11-05T11:48:27Z</time>
      </trkpt>
      <trkpt lat="42.86811" lon="0.20405">
        <ele>2512</ele>
        <time>2021-11-05T11:48:59Z</time>
      </trkpt>
      <trkpt lat="42.86827" lon="0.20388">
        <ele>2509</ele>
        <time>2021-11-05T11:49:15Z</time>
      </trkpt>
      <trkpt lat="42.86847" lon="0.20376">
        <ele>2502</ele>
        <time>2021-11-05T11:49:33Z</time>
      </trkpt>
      <trkpt lat="42.86854" lon="0.20368">
        <ele>2501</ele>
        <time>2021-11-05T11:49:40Z</time>
      </trkpt>
      <trkpt lat="42.86859" lon="0.20366">
        <ele>2499</ele>
        <time>2021-11-05T11:49:44Z</time>
      </trkpt>
      <trkpt lat="42.86866" lon="0.20355">
        <ele>2498</ele>
        <time>2021-11-05T11:49:53Z</time>
      </trkpt>
      <trkpt lat="42.86881" lon="0.2034">
        <ele>2494</ele>
        <time>2021-11-05T11:50:08Z</time>
      </trkpt>
      <trkpt lat="42.86888" lon="0.20337">
        <ele>2490</ele>
        <time>2021-11-05T11:50:13Z</time>
      </trkpt>
      <trkpt lat="42.86916" lon="0.20295">
        <ele>2488</ele>
        <time>2021-11-05T11:50:47Z</time>
      </trkpt>
      <trkpt lat="42.86993" lon="0.20204">
        <ele>2476</ele>
        <time>2021-11-05T11:52:08Z</time>
      </trkpt>
      <trkpt lat="42.87008" lon="0.20197">
        <ele>2474</ele>
        <time>2021-11-05T11:52:21Z</time>
      </trkpt>
      <trkpt lat="42.87014" lon="0.2019">
        <ele>2475</ele>
        <time>2021-11-05T11:52:27Z</time>
      </trkpt>
      <trkpt lat="42.87035" lon="0.20182">
        <ele>2475</ele>
        <time>2021-11-05T11:52:45Z</time>
      </trkpt>
      <trkpt lat="42.87042" lon="0.20176">
        <ele>2476</ele>
        <time>2021-11-05T11:52:51Z</time>
      </trkpt>
      <trkpt lat="42.87053" lon="0.20163">
        <ele>2478</ele>
        <time>2021-11-05T11:53:03Z</time>
      </trkpt>
      <trkpt lat="42.87064" lon="0.20161">
        <ele>2476</ele>
        <time>2021-11-05T11:53:12Z</time>
      </trkpt>
      <trkpt lat="42.87073" lon="0.20154">
        <ele>2475</ele>
        <time>2021-11-05T11:53:20Z</time>
      </trkpt>
      <trkpt lat="42.87083" lon="0.20151">
        <ele>2474</ele>
        <time>2021-11-05T11:53:28Z</time>
      </trkpt>
      <trkpt lat="42.87096" lon="0.20141">
        <ele>2474</ele>
        <time>2021-11-05T11:53:40Z</time>
      </trkpt>
      <trkpt lat="42.87119" lon="0.20131">
        <ele>2473</ele>
        <time>2021-11-05T11:54:00Z</time>
      </trkpt>
      <trkpt lat="42.87118" lon="0.20127">
        <ele>2474</ele>
        <time>2021-11-05T11:54:02Z</time>
      </trkpt>
      <trkpt lat="42.8712" lon="0.20123">
        <ele>2475</ele>
        <time>2021-11-05T11:54:05Z</time>
      </trkpt>
      <trkpt lat="42.87115" lon="0.20114">
        <ele>2476</ele>
        <time>2021-11-05T11:54:12Z</time>
      </trkpt>
      <trkpt lat="42.87118" lon="0.20106">
        <ele>2477</ele>
        <time>2021-11-05T11:54:17Z</time>
      </trkpt>
      <trkpt lat="42.87116" lon="0.20095">
        <ele>2479</ele>
        <time>2021-11-05T11:54:24Z</time>
      </trkpt>
      <trkpt lat="42.87118" lon="0.20089">
        <ele>2480</ele>
        <time>2021-11-05T11:54:28Z</time>
      </trkpt>
      <trkpt lat="42.8711" lon="0.20085">
        <ele>2480</ele>
        <time>2021-11-05T11:54:34Z</time>
      </trkpt>
      <trkpt lat="42.87116" lon="0.20077">
        <ele>2478</ele>
        <time>2021-11-05T11:54:41Z</time>
      </trkpt>
      <trkpt lat="42.87118" lon="0.20068">
        <ele>2475</ele>
        <time>2021-11-05T11:54:47Z</time>
      </trkpt>
      <trkpt lat="42.8711" lon="0.20069">
        <ele>2475</ele>
        <time>2021-11-05T11:54:53Z</time>
      </trkpt>
      <trkpt lat="42.87101" lon="0.20068">
        <ele>2474</ele>
        <time>2021-11-05T11:55:00Z</time>
      </trkpt>
      <trkpt lat="42.87111" lon="0.20052">
        <ele>2468</ele>
        <time>2021-11-05T11:55:13Z</time>
      </trkpt>
      <trkpt lat="42.87115" lon="0.2004">
        <ele>2464</ele>
        <time>2021-11-05T11:55:20Z</time>
      </trkpt>
      <trkpt lat="42.87097" lon="0.20037">
        <ele>2460</ele>
        <time>2021-11-05T11:55:35Z</time>
      </trkpt>
      <trkpt lat="42.87105" lon="0.2002">
        <ele>2454</ele>
        <time>2021-11-05T11:55:47Z</time>
      </trkpt>
      <trkpt lat="42.87105" lon="0.20016">
        <ele>2452</ele>
        <time>2021-11-05T11:55:49Z</time>
      </trkpt>
      <trkpt lat="42.8711" lon="0.20002">
        <ele>2448</ele>
        <time>2021-11-05T11:55:58Z</time>
      </trkpt>
      <trkpt lat="42.87114" lon="0.19998">
        <ele>2448</ele>
        <time>2021-11-05T11:56:02Z</time>
      </trkpt>
      <trkpt lat="42.87112" lon="0.19993">
        <ele>2446</ele>
        <time>2021-11-05T11:56:05Z</time>
      </trkpt>
      <trkpt lat="42.87101" lon="0.1999">
        <ele>2441</ele>
        <time>2021-11-05T11:56:14Z</time>
      </trkpt>
      <trkpt lat="42.87108" lon="0.19973">
        <ele>2439</ele>
        <time>2021-11-05T11:56:26Z</time>
      </trkpt>
      <trkpt lat="42.87105" lon="0.19974">
        <ele>2438</ele>
        <time>2021-11-05T11:56:28Z</time>
      </trkpt>
      <trkpt lat="42.87103" lon="0.1997">
        <ele>2436</ele>
        <time>2021-11-05T11:56:31Z</time>
      </trkpt>
      <trkpt lat="42.871" lon="0.1997">
        <ele>2435</ele>
        <time>2021-11-05T11:56:34Z</time>
      </trkpt>
      <trkpt lat="42.871" lon="0.19967">
        <ele>2434</ele>
        <time>2021-11-05T11:56:35Z</time>
      </trkpt>
      <trkpt lat="42.87104" lon="0.19965">
        <ele>2435</ele>
        <time>2021-11-05T11:56:39Z</time>
      </trkpt>
      <trkpt lat="42.87104" lon="0.19963">
        <ele>2434</ele>
        <time>2021-11-05T11:56:40Z</time>
      </trkpt>
      <trkpt lat="42.87099" lon="0.19958">
        <ele>2431</ele>
        <time>2021-11-05T11:56:45Z</time>
      </trkpt>
      <trkpt lat="42.87097" lon="0.19952">
        <ele>2429</ele>
        <time>2021-11-05T11:56:49Z</time>
      </trkpt>
      <trkpt lat="42.87092" lon="0.19947">
        <ele>2425</ele>
        <time>2021-11-05T11:56:54Z</time>
      </trkpt>
      <trkpt lat="42.87092" lon="0.19943">
        <ele>2424</ele>
        <time>2021-11-05T11:56:56Z</time>
      </trkpt>
      <trkpt lat="42.87103" lon="0.19939">
        <ele>2427</ele>
        <time>2021-11-05T11:57:05Z</time>
      </trkpt>
      <trkpt lat="42.87096" lon="0.19928">
        <ele>2421</ele>
        <time>2021-11-05T11:57:14Z</time>
      </trkpt>
      <trkpt lat="42.87096" lon="0.19921">
        <ele>2419</ele>
        <time>2021-11-05T11:57:18Z</time>
      </trkpt>
      <trkpt lat="42.87088" lon="0.19913">
        <ele>2414</ele>
        <time>2021-11-05T11:57:26Z</time>
      </trkpt>
      <trkpt lat="42.87088" lon="0.19908">
        <ele>2413</ele>
        <time>2021-11-05T11:57:29Z</time>
      </trkpt>
      <trkpt lat="42.87085" lon="0.19903">
        <ele>2411</ele>
        <time>2021-11-05T11:57:33Z</time>
      </trkpt>
      <trkpt lat="42.87088" lon="0.1988">
        <ele>2408</ele>
        <time>2021-11-05T11:57:46Z</time>
      </trkpt>
      <trkpt lat="42.87087" lon="0.19875">
        <ele>2407</ele>
        <time>2021-11-05T11:57:49Z</time>
      </trkpt>
      <trkpt lat="42.87079" lon="0.19861">
        <ele>2403</ele>
        <time>2021-11-05T11:58:00Z</time>
      </trkpt>
      <trkpt lat="42.87078" lon="0.19853">
        <ele>2402</ele>
        <time>2021-11-05T11:58:04Z</time>
      </trkpt>
      <trkpt lat="42.8707" lon="0.19852">
        <ele>2401</ele>
        <time>2021-11-05T11:58:11Z</time>
      </trkpt>
      <trkpt lat="42.87066" lon="0.19828">
        <ele>2396</ele>
        <time>2021-11-05T11:58:25Z</time>
      </trkpt>
      <trkpt lat="42.8706" lon="0.19818">
        <ele>2394</ele>
        <time>2021-11-05T11:58:33Z</time>
      </trkpt>
      <trkpt lat="42.8706" lon="0.19808">
        <ele>2392</ele>
        <time>2021-11-05T11:58:39Z</time>
      </trkpt>
      <trkpt lat="42.87062" lon="0.19801">
        <ele>2391</ele>
        <time>2021-11-05T11:58:43Z</time>
      </trkpt>
      <trkpt lat="42.8706" lon="0.19793">
        <ele>2389</ele>
        <time>2021-11-05T11:58:48Z</time>
      </trkpt>
      <trkpt lat="42.8705" lon="0.19782">
        <ele>2386</ele>
        <time>2021-11-05T11:58:58Z</time>
      </trkpt>
      <trkpt lat="42.87046" lon="0.1977">
        <ele>2383</ele>
        <time>2021-11-05T11:59:06Z</time>
      </trkpt>
      <trkpt lat="42.87039" lon="0.19762">
        <ele>2380</ele>
        <time>2021-11-05T11:59:14Z</time>
      </trkpt>
      <trkpt lat="42.87037" lon="0.19754">
        <ele>2378</ele>
        <time>2021-11-05T11:59:18Z</time>
      </trkpt>
      <trkpt lat="42.87037" lon="0.19747">
        <ele>2377</ele>
        <time>2021-11-05T11:59:23Z</time>
      </trkpt>
      <trkpt lat="42.87034" lon="0.19739">
        <ele>2375</ele>
        <time>2021-11-05T11:59:28Z</time>
      </trkpt>
      <trkpt lat="42.87031" lon="0.19736">
        <ele>2374</ele>
        <time>2021-11-05T11:59:31Z</time>
      </trkpt>
      <trkpt lat="42.87031" lon="0.19726">
        <ele>2372</ele>
        <time>2021-11-05T11:59:37Z</time>
      </trkpt>
      <trkpt lat="42.8702" lon="0.19711">
        <ele>2367</ele>
        <time>2021-11-05T11:59:49Z</time>
      </trkpt>
      <trkpt lat="42.87015" lon="0.19698">
        <ele>2364</ele>
        <time>2021-11-05T11:59:58Z</time>
      </trkpt>
      <trkpt lat="42.87013" lon="0.19682">
        <ele>2361</ele>
        <time>2021-11-05T12:00:07Z</time>
      </trkpt>
      <trkpt lat="42.87006" lon="0.1966">
        <ele>2356</ele>
        <time>2021-11-05T12:00:21Z</time>
      </trkpt>
      <trkpt lat="42.87006" lon="0.19649">
        <ele>2355</ele>
        <time>2021-11-05T12:00:28Z</time>
      </trkpt>
      <trkpt lat="42.87" lon="0.19632">
        <ele>2352</ele>
        <time>2021-11-05T12:00:39Z</time>
      </trkpt>
      <trkpt lat="42.86999" lon="0.19625">
        <ele>2352</ele>
        <time>2021-11-05T12:00:43Z</time>
      </trkpt>
      <trkpt lat="42.86996" lon="0.19621">
        <ele>2352</ele>
        <time>2021-11-05T12:00:46Z</time>
      </trkpt>
      <trkpt lat="42.86984" lon="0.19594">
        <ele>2350</ele>
        <time>2021-11-05T12:01:05Z</time>
      </trkpt>
      <trkpt lat="42.86984" lon="0.19576">
        <ele>2348</ele>
        <time>2021-11-05T12:01:16Z</time>
      </trkpt>
      <trkpt lat="42.86986" lon="0.19564">
        <ele>2346</ele>
        <time>2021-11-05T12:01:23Z</time>
      </trkpt>
      <trkpt lat="42.86985" lon="0.19553">
        <ele>2345</ele>
        <time>2021-11-05T12:01:29Z</time>
      </trkpt>
      <trkpt lat="42.86981" lon="0.19544">
        <ele>2344</ele>
        <time>2021-11-05T12:01:35Z</time>
      </trkpt>
      <trkpt lat="42.86975" lon="0.19522">
        <ele>2342</ele>
        <time>2021-11-05T12:01:49Z</time>
      </trkpt>
      <trkpt lat="42.86968" lon="0.19508">
        <ele>2341</ele>
        <time>2021-11-05T12:01:59Z</time>
      </trkpt>
      <trkpt lat="42.86965" lon="0.19497">
        <ele>2340</ele>
        <time>2021-11-05T12:02:06Z</time>
      </trkpt>
      <trkpt lat="42.86964" lon="0.19479">
        <ele>2338</ele>
        <time>2021-11-05T12:02:17Z</time>
      </trkpt>
      <trkpt lat="42.86967" lon="0.19463">
        <ele>2335</ele>
        <time>2021-11-05T12:02:26Z</time>
      </trkpt>
      <trkpt lat="42.86966" lon="0.19454">
        <ele>2334</ele>
        <time>2021-11-05T12:02:32Z</time>
      </trkpt>
      <trkpt lat="42.86967" lon="0.19452">
        <ele>2333</ele>
        <time>2021-11-05T12:02:33Z</time>
      </trkpt>
      <trkpt lat="42.86974" lon="0.19451">
        <ele>2332</ele>
        <time>2021-11-05T12:02:39Z</time>
      </trkpt>
      <trkpt lat="42.86975" lon="0.19445">
        <ele>2331</ele>
        <time>2021-11-05T12:02:42Z</time>
      </trkpt>
      <trkpt lat="42.86978" lon="0.19441">
        <ele>2330</ele>
        <time>2021-11-05T12:02:46Z</time>
      </trkpt>
      <trkpt lat="42.86977" lon="0.19437">
        <ele>2330</ele>
        <time>2021-11-05T12:02:48Z</time>
      </trkpt>
      <trkpt lat="42.86979" lon="0.19419">
        <ele>2327</ele>
        <time>2021-11-05T12:02:59Z</time>
      </trkpt>
      <trkpt lat="42.86983" lon="0.19407">
        <ele>2324</ele>
        <time>2021-11-05T12:03:07Z</time>
      </trkpt>
      <trkpt lat="42.86983" lon="0.19401">
        <ele>2324</ele>
        <time>2021-11-05T12:03:10Z</time>
      </trkpt>
      <trkpt lat="42.86988" lon="0.19393">
        <ele>2322</ele>
        <time>2021-11-05T12:03:16Z</time>
      </trkpt>
      <trkpt lat="42.8699" lon="0.19386">
        <ele>2320</ele>
        <time>2021-11-05T12:03:21Z</time>
      </trkpt>
      <trkpt lat="42.8699" lon="0.19373">
        <ele>2319</ele>
        <time>2021-11-05T12:03:28Z</time>
      </trkpt>
      <trkpt lat="42.86992" lon="0.19361">
        <ele>2316</ele>
        <time>2021-11-05T12:03:36Z</time>
      </trkpt>
      <trkpt lat="42.86996" lon="0.1935">
        <ele>2314</ele>
        <time>2021-11-05T12:03:43Z</time>
      </trkpt>
      <trkpt lat="42.87006" lon="0.19336">
        <ele>2311</ele>
        <time>2021-11-05T12:03:54Z</time>
      </trkpt>
      <trkpt lat="42.87029" lon="0.1929">
        <ele>2307</ele>
        <time>2021-11-05T12:04:27Z</time>
      </trkpt>
      <trkpt lat="42.8704" lon="0.19255">
        <ele>2305</ele>
        <time>2021-11-05T12:04:49Z</time>
      </trkpt>
      <trkpt lat="42.87045" lon="0.19211">
        <ele>2304</ele>
        <time>2021-11-05T12:05:15Z</time>
      </trkpt>
      <trkpt lat="42.87055" lon="0.19174">
        <ele>2303</ele>
        <time>2021-11-05T12:05:39Z</time>
      </trkpt>
      <trkpt lat="42.8703" lon="0.19168">
        <ele>2307</ele>
        <time>2021-11-05T12:05:59Z</time>
      </trkpt>
      <trkpt lat="42.87028" lon="0.19163">
        <ele>2308</ele>
        <time>2021-11-05T12:06:02Z</time>
      </trkpt>
      <trkpt lat="42.87022" lon="0.19158">
        <ele>2309</ele>
        <time>2021-11-05T12:06:08Z</time>
      </trkpt>
      <trkpt lat="42.87019" lon="0.19151">
        <ele>2310</ele>
        <time>2021-11-05T12:06:13Z</time>
      </trkpt>
      <trkpt lat="42.87018" lon="0.19145">
        <ele>2311</ele>
        <time>2021-11-05T12:06:16Z</time>
      </trkpt>
      <trkpt lat="42.87009" lon="0.19139">
        <ele>2313</ele>
        <time>2021-11-05T12:06:24Z</time>
      </trkpt>
      <trkpt lat="42.87001" lon="0.1913">
        <ele>2316</ele>
        <time>2021-11-05T12:06:33Z</time>
      </trkpt>
      <trkpt lat="42.87005" lon="0.19103">
        <ele>2318</ele>
        <time>2021-11-05T12:06:49Z</time>
      </trkpt>
      <trkpt lat="42.87013" lon="0.19086">
        <ele>2317</ele>
        <time>2021-11-05T12:07:01Z</time>
      </trkpt>
      <trkpt lat="42.87023" lon="0.19036">
        <ele>2316</ele>
        <time>2021-11-05T12:07:31Z</time>
      </trkpt>
      <trkpt lat="42.87035" lon="0.19022">
        <ele>2313</ele>
        <time>2021-11-05T12:07:44Z</time>
      </trkpt>
      <trkpt lat="42.87039" lon="0.18935">
        <ele>2303</ele>
        <time>2021-11-05T12:08:35Z</time>
      </trkpt>
      <trkpt lat="42.87037" lon="0.18908">
        <ele>2298</ele>
        <time>2021-11-05T12:08:51Z</time>
      </trkpt>
      <trkpt lat="42.87073" lon="0.18909">
        <ele>2297</ele>
        <time>2021-11-05T12:09:19Z</time>
      </trkpt>
      <trkpt lat="42.87076" lon="0.18894">
        <ele>2296</ele>
        <time>2021-11-05T12:09:29Z</time>
      </trkpt>
      <trkpt lat="42.87094" lon="0.18872">
        <ele>2294</ele>
        <time>2021-11-05T12:09:48Z</time>
      </trkpt>
      <trkpt lat="42.87108" lon="0.18849">
        <ele>2292</ele>
        <time>2021-11-05T12:10:06Z</time>
      </trkpt>
      <trkpt lat="42.87108" lon="0.18839">
        <ele>2292</ele>
        <time>2021-11-05T12:10:11Z</time>
      </trkpt>
      <trkpt lat="42.87114" lon="0.18788">
        <ele>2289</ele>
        <time>2021-11-05T12:10:42Z</time>
      </trkpt>
      <trkpt lat="42.87108" lon="0.18721">
        <ele>2287</ele>
        <time>2021-11-05T12:11:21Z</time>
      </trkpt>
      <trkpt lat="42.87108" lon="0.18715">
        <ele>2287</ele>
        <time>2021-11-05T12:11:25Z</time>
      </trkpt>
      <trkpt lat="42.87103" lon="0.18682">
        <ele>2286</ele>
        <time>2021-11-05T12:11:45Z</time>
      </trkpt>
      <trkpt lat="42.87105" lon="0.18675">
        <ele>2286</ele>
        <time>2021-11-05T12:11:49Z</time>
      </trkpt>
      <trkpt lat="42.87102" lon="0.18658">
        <ele>2286</ele>
        <time>2021-11-05T12:11:59Z</time>
      </trkpt>
      <trkpt lat="42.87103" lon="0.18651">
        <ele>2286</ele>
        <time>2021-11-05T12:12:03Z</time>
      </trkpt>
      <trkpt lat="42.87106" lon="0.18648">
        <ele>2287</ele>
        <time>2021-11-05T12:12:06Z</time>
      </trkpt>
      <trkpt lat="42.87108" lon="0.18639">
        <ele>2287</ele>
        <time>2021-11-05T12:12:12Z</time>
      </trkpt>
      <trkpt lat="42.87111" lon="0.18623">
        <ele>2287</ele>
        <time>2021-11-05T12:12:22Z</time>
      </trkpt>
      <trkpt lat="42.87111" lon="0.18615">
        <ele>2287</ele>
        <time>2021-11-05T12:12:26Z</time>
      </trkpt>
      <trkpt lat="42.87107" lon="0.18609">
        <ele>2287</ele>
        <time>2021-11-05T12:12:31Z</time>
      </trkpt>
      <trkpt lat="42.87111" lon="0.18615">
        <ele>2287</ele>
        <time>2021-11-05T12:12:36Z</time>
      </trkpt>
      <trkpt lat="42.87111" lon="0.18623">
        <ele>2287</ele>
        <time>2021-11-05T12:12:41Z</time>
      </trkpt>
      <trkpt lat="42.87108" lon="0.18639">
        <ele>2287</ele>
        <time>2021-11-05T12:12:50Z</time>
      </trkpt>
      <trkpt lat="42.87106" lon="0.18648">
        <ele>2287</ele>
        <time>2021-11-05T12:12:56Z</time>
      </trkpt>
      <trkpt lat="42.87103" lon="0.18651">
        <ele>2286</ele>
        <time>2021-11-05T12:12:59Z</time>
      </trkpt>
      <trkpt lat="42.87102" lon="0.18658">
        <ele>2286</ele>
        <time>2021-11-05T12:13:03Z</time>
      </trkpt>
      <trkpt lat="42.87105" lon="0.18675">
        <ele>2286</ele>
        <time>2021-11-05T12:13:13Z</time>
      </trkpt>
      <trkpt lat="42.87103" lon="0.18682">
        <ele>2286</ele>
        <time>2021-11-05T12:13:18Z</time>
      </trkpt>
      <trkpt lat="42.87108" lon="0.18715">
        <ele>2287</ele>
        <time>2021-11-05T12:13:37Z</time>
      </trkpt>
      <trkpt lat="42.87108" lon="0.18721">
        <ele>2287</ele>
        <time>2021-11-05T12:13:41Z</time>
      </trkpt>
      <trkpt lat="42.87076" lon="0.18712">
        <ele>2284</ele>
        <time>2021-11-05T12:14:07Z</time>
      </trkpt>
      <trkpt lat="42.87067" lon="0.18714">
        <ele>2281</ele>
        <time>2021-11-05T12:14:14Z</time>
      </trkpt>
      <trkpt lat="42.87048" lon="0.18692">
        <ele>2275</ele>
        <time>2021-11-05T12:14:34Z</time>
      </trkpt>
      <trkpt lat="42.87035" lon="0.18688">
        <ele>2272</ele>
        <time>2021-11-05T12:14:45Z</time>
      </trkpt>
      <trkpt lat="42.87027" lon="0.18683">
        <ele>2269</ele>
        <time>2021-11-05T12:14:52Z</time>
      </trkpt>
      <trkpt lat="42.87005" lon="0.18677">
        <ele>2263</ele>
        <time>2021-11-05T12:15:10Z</time>
      </trkpt>
      <trkpt lat="42.86984" lon="0.18678">
        <ele>2257</ele>
        <time>2021-11-05T12:15:27Z</time>
      </trkpt>
      <trkpt lat="42.86976" lon="0.18676">
        <ele>2255</ele>
        <time>2021-11-05T12:15:33Z</time>
      </trkpt>
      <trkpt lat="42.86966" lon="0.18679">
        <ele>2252</ele>
        <time>2021-11-05T12:15:42Z</time>
      </trkpt>
      <trkpt lat="42.86929" lon="0.18696">
        <ele>2240</ele>
        <time>2021-11-05T12:16:13Z</time>
      </trkpt>
      <trkpt lat="42.869" lon="0.18716">
        <ele>2232</ele>
        <time>2021-11-05T12:16:39Z</time>
      </trkpt>
      <trkpt lat="42.86886" lon="0.18731">
        <ele>2229</ele>
        <time>2021-11-05T12:16:53Z</time>
      </trkpt>
      <trkpt lat="42.86881" lon="0.1874">
        <ele>2227</ele>
        <time>2021-11-05T12:17:00Z</time>
      </trkpt>
      <trkpt lat="42.86878" lon="0.18742">
        <ele>2226</ele>
        <time>2021-11-05T12:17:02Z</time>
      </trkpt>
      <trkpt lat="42.86875" lon="0.18746">
        <ele>2225</ele>
        <time>2021-11-05T12:17:06Z</time>
      </trkpt>
      <trkpt lat="42.86865" lon="0.18746">
        <ele>2223</ele>
        <time>2021-11-05T12:17:14Z</time>
      </trkpt>
      <trkpt lat="42.86862" lon="0.18751">
        <ele>2222</ele>
        <time>2021-11-05T12:17:17Z</time>
      </trkpt>
      <trkpt lat="42.8686" lon="0.18747">
        <ele>2222</ele>
        <time>2021-11-05T12:17:20Z</time>
      </trkpt>
      <trkpt lat="42.86852" lon="0.18747">
        <ele>2221</ele>
        <time>2021-11-05T12:17:27Z</time>
      </trkpt>
      <trkpt lat="42.86845" lon="0.18736">
        <ele>2221</ele>
        <time>2021-11-05T12:17:35Z</time>
      </trkpt>
      <trkpt lat="42.86839" lon="0.18732">
        <ele>2221</ele>
        <time>2021-11-05T12:17:41Z</time>
      </trkpt>
      <trkpt lat="42.86834" lon="0.18733">
        <ele>2220</ele>
        <time>2021-11-05T12:17:45Z</time>
      </trkpt>
      <trkpt lat="42.86829" lon="0.18739">
        <ele>2218</ele>
        <time>2021-11-05T12:17:50Z</time>
      </trkpt>
      <trkpt lat="42.86817" lon="0.18732">
        <ele>2218</ele>
        <time>2021-11-05T12:18:00Z</time>
      </trkpt>
      <trkpt lat="42.86813" lon="0.18737">
        <ele>2217</ele>
        <time>2021-11-05T12:18:05Z</time>
      </trkpt>
      <trkpt lat="42.86809" lon="0.18738">
        <ele>2216</ele>
        <time>2021-11-05T12:18:08Z</time>
      </trkpt>
      <trkpt lat="42.86767" lon="0.18739">
        <ele>2212</ele>
        <time>2021-11-05T12:18:42Z</time>
      </trkpt>
      <trkpt lat="42.86761" lon="0.18742">
        <ele>2211</ele>
        <time>2021-11-05T12:18:47Z</time>
      </trkpt>
      <trkpt lat="42.86738" lon="0.18739">
        <ele>2209</ele>
        <time>2021-11-05T12:19:05Z</time>
      </trkpt>
      <trkpt lat="42.8673" lon="0.18736">
        <ele>2209</ele>
        <time>2021-11-05T12:19:12Z</time>
      </trkpt>
      <trkpt lat="42.8672" lon="0.18736">
        <ele>2209</ele>
        <time>2021-11-05T12:19:20Z</time>
      </trkpt>
      <trkpt lat="42.86697" lon="0.1873">
        <ele>2209</ele>
        <time>2021-11-05T12:19:39Z</time>
      </trkpt>
      <trkpt lat="42.86673" lon="0.18729">
        <ele>2208</ele>
        <time>2021-11-05T12:19:58Z</time>
      </trkpt>
      <trkpt lat="42.86669" lon="0.18728">
        <ele>2208</ele>
        <time>2021-11-05T12:20:01Z</time>
      </trkpt>
      <trkpt lat="42.86651" lon="0.18723">
        <ele>2206</ele>
        <time>2021-11-05T12:20:16Z</time>
      </trkpt>
      <trkpt lat="42.86641" lon="0.18722">
        <ele>2206</ele>
        <time>2021-11-05T12:20:24Z</time>
      </trkpt>
      <trkpt lat="42.86633" lon="0.18725">
        <ele>2205</ele>
        <time>2021-11-05T12:20:31Z</time>
      </trkpt>
      <trkpt lat="42.86626" lon="0.18722">
        <ele>2204</ele>
        <time>2021-11-05T12:20:36Z</time>
      </trkpt>
      <trkpt lat="42.86615" lon="0.1872">
        <ele>2203</ele>
        <time>2021-11-05T12:20:45Z</time>
      </trkpt>
      <trkpt lat="42.86607" lon="0.18723">
        <ele>2203</ele>
        <time>2021-11-05T12:20:52Z</time>
      </trkpt>
      <trkpt lat="42.86597" lon="0.18724">
        <ele>2202</ele>
        <time>2021-11-05T12:21:00Z</time>
      </trkpt>
      <trkpt lat="42.86588" lon="0.18728">
        <ele>2201</ele>
        <time>2021-11-05T12:21:08Z</time>
      </trkpt>
      <trkpt lat="42.8658" lon="0.18725">
        <ele>2200</ele>
        <time>2021-11-05T12:21:14Z</time>
      </trkpt>
      <trkpt lat="42.86568" lon="0.18725">
        <ele>2197</ele>
        <time>2021-11-05T12:21:24Z</time>
      </trkpt>
      <trkpt lat="42.86563" lon="0.18722">
        <ele>2196</ele>
        <time>2021-11-05T12:21:28Z</time>
      </trkpt>
      <trkpt lat="42.86555" lon="0.18723">
        <ele>2194</ele>
        <time>2021-11-05T12:21:35Z</time>
      </trkpt>
      <trkpt lat="42.86554" lon="0.18722">
        <ele>2194</ele>
        <time>2021-11-05T12:21:36Z</time>
      </trkpt>
      <trkpt lat="42.86547" lon="0.1872">
        <ele>2192</ele>
        <time>2021-11-05T12:21:41Z</time>
      </trkpt>
      <trkpt lat="42.86536" lon="0.18721">
        <ele>2190</ele>
        <time>2021-11-05T12:21:50Z</time>
      </trkpt>
      <trkpt lat="42.8653" lon="0.18712">
        <ele>2187</ele>
        <time>2021-11-05T12:21:57Z</time>
      </trkpt>
      <trkpt lat="42.86524" lon="0.18709">
        <ele>2185</ele>
        <time>2021-11-05T12:22:02Z</time>
      </trkpt>
      <trkpt lat="42.86516" lon="0.18701">
        <ele>2183</ele>
        <time>2021-11-05T12:22:10Z</time>
      </trkpt>
      <trkpt lat="42.86507" lon="0.18688">
        <ele>2179</ele>
        <time>2021-11-05T12:22:21Z</time>
      </trkpt>
      <trkpt lat="42.86499" lon="0.1869">
        <ele>2177</ele>
        <time>2021-11-05T12:22:27Z</time>
      </trkpt>
      <trkpt lat="42.86496" lon="0.18693">
        <ele>2176</ele>
        <time>2021-11-05T12:22:30Z</time>
      </trkpt>
      <trkpt lat="42.86487" lon="0.18692">
        <ele>2174</ele>
        <time>2021-11-05T12:22:38Z</time>
      </trkpt>
      <trkpt lat="42.86486" lon="0.18689">
        <ele>2173</ele>
        <time>2021-11-05T12:22:40Z</time>
      </trkpt>
      <trkpt lat="42.86482" lon="0.18691">
        <ele>2172</ele>
        <time>2021-11-05T12:22:43Z</time>
      </trkpt>
      <trkpt lat="42.86481" lon="0.1869">
        <ele>2172</ele>
        <time>2021-11-05T12:22:44Z</time>
      </trkpt>
      <trkpt lat="42.86473" lon="0.18695">
        <ele>2170</ele>
        <time>2021-11-05T12:22:51Z</time>
      </trkpt>
      <trkpt lat="42.86467" lon="0.18696">
        <ele>2169</ele>
        <time>2021-11-05T12:22:56Z</time>
      </trkpt>
      <trkpt lat="42.86461" lon="0.18694">
        <ele>2167</ele>
        <time>2021-11-05T12:23:01Z</time>
      </trkpt>
      <trkpt lat="42.86452" lon="0.18699">
        <ele>2165</ele>
        <time>2021-11-05T12:23:09Z</time>
      </trkpt>
      <trkpt lat="42.86434" lon="0.18697">
        <ele>2159</ele>
        <time>2021-11-05T12:23:23Z</time>
      </trkpt>
      <trkpt lat="42.86427" lon="0.18691">
        <ele>2156</ele>
        <time>2021-11-05T12:23:30Z</time>
      </trkpt>
      <trkpt lat="42.86422" lon="0.18691">
        <ele>2155</ele>
        <time>2021-11-05T12:23:34Z</time>
      </trkpt>
      <trkpt lat="42.86418" lon="0.18694">
        <ele>2154</ele>
        <time>2021-11-05T12:23:37Z</time>
      </trkpt>
      <trkpt lat="42.86408" lon="0.18693">
        <ele>2152</ele>
        <time>2021-11-05T12:23:45Z</time>
      </trkpt>
      <trkpt lat="42.86399" lon="0.18695">
        <ele>2150</ele>
        <time>2021-11-05T12:23:53Z</time>
      </trkpt>
      <trkpt lat="42.86394" lon="0.18701">
        <ele>2150</ele>
        <time>2021-11-05T12:23:58Z</time>
      </trkpt>
      <trkpt lat="42.86385" lon="0.18695">
        <ele>2147</ele>
        <time>2021-11-05T12:24:06Z</time>
      </trkpt>
      <trkpt lat="42.8638" lon="0.18694">
        <ele>2146</ele>
        <time>2021-11-05T12:24:10Z</time>
      </trkpt>
      <trkpt lat="42.86364" lon="0.18705">
        <ele>2144</ele>
        <time>2021-11-05T12:24:24Z</time>
      </trkpt>
      <trkpt lat="42.8635" lon="0.18704">
        <ele>2140</ele>
        <time>2021-11-05T12:24:36Z</time>
      </trkpt>
      <trkpt lat="42.86334" lon="0.18715">
        <ele>2138</ele>
        <time>2021-11-05T12:24:50Z</time>
      </trkpt>
      <trkpt lat="42.86326" lon="0.18728">
        <ele>2139</ele>
        <time>2021-11-05T12:25:00Z</time>
      </trkpt>
      <trkpt lat="42.8632" lon="0.18732">
        <ele>2138</ele>
        <time>2021-11-05T12:25:05Z</time>
      </trkpt>
      <trkpt lat="42.86314" lon="0.18729">
        <ele>2137</ele>
        <time>2021-11-05T12:25:10Z</time>
      </trkpt>
      <trkpt lat="42.86289" lon="0.18733">
        <ele>2133</ele>
        <time>2021-11-05T12:25:31Z</time>
      </trkpt>
      <trkpt lat="42.86266" lon="0.18732">
        <ele>2128</ele>
        <time>2021-11-05T12:25:49Z</time>
      </trkpt>
      <trkpt lat="42.86254" lon="0.18729">
        <ele>2126</ele>
        <time>2021-11-05T12:25:59Z</time>
      </trkpt>
      <trkpt lat="42.86239" lon="0.18728">
        <ele>2123</ele>
        <time>2021-11-05T12:26:11Z</time>
      </trkpt>
      <trkpt lat="42.86226" lon="0.18731">
        <ele>2122</ele>
        <time>2021-11-05T12:26:21Z</time>
      </trkpt>
      <trkpt lat="42.8622" lon="0.18728">
        <ele>2120</ele>
        <time>2021-11-05T12:26:26Z</time>
      </trkpt>
      <trkpt lat="42.86183" lon="0.18724">
        <ele>2114</ele>
        <time>2021-11-05T12:26:56Z</time>
      </trkpt>
      <trkpt lat="42.86159" lon="0.18725">
        <ele>2111</ele>
        <time>2021-11-05T12:27:15Z</time>
      </trkpt>
      <trkpt lat="42.86147" lon="0.18732">
        <ele>2111</ele>
        <time>2021-11-05T12:27:26Z</time>
      </trkpt>
      <trkpt lat="42.86143" lon="0.18732">
        <ele>2111</ele>
        <time>2021-11-05T12:27:29Z</time>
      </trkpt>
      <trkpt lat="42.86135" lon="0.18729">
        <ele>2110</ele>
        <time>2021-11-05T12:27:36Z</time>
      </trkpt>
      <trkpt lat="42.86132" lon="0.18726">
        <ele>2109</ele>
        <time>2021-11-05T12:27:39Z</time>
      </trkpt>
      <trkpt lat="42.86124" lon="0.18726">
        <ele>2109</ele>
        <time>2021-11-05T12:27:45Z</time>
      </trkpt>
      <trkpt lat="42.86119" lon="0.18716">
        <ele>2108</ele>
        <time>2021-11-05T12:27:52Z</time>
      </trkpt>
      <trkpt lat="42.86117" lon="0.1871">
        <ele>2108</ele>
        <time>2021-11-05T12:27:56Z</time>
      </trkpt>
      <trkpt lat="42.86113" lon="0.18703">
        <ele>2107</ele>
        <time>2021-11-05T12:28:01Z</time>
      </trkpt>
      <trkpt lat="42.86111" lon="0.18703">
        <ele>2107</ele>
        <time>2021-11-05T12:28:03Z</time>
      </trkpt>
      <trkpt lat="42.86107" lon="0.18706">
        <ele>2107</ele>
        <time>2021-11-05T12:28:06Z</time>
      </trkpt>
      <trkpt lat="42.86103" lon="0.1871">
        <ele>2107</ele>
        <time>2021-11-05T12:28:10Z</time>
      </trkpt>
      <trkpt lat="42.86103" lon="0.18713">
        <ele>2107</ele>
        <time>2021-11-05T12:28:12Z</time>
      </trkpt>
      <trkpt lat="42.86096" lon="0.18718">
        <ele>2106</ele>
        <time>2021-11-05T12:28:19Z</time>
      </trkpt>
      <trkpt lat="42.86091" lon="0.18719">
        <ele>2106</ele>
        <time>2021-11-05T12:28:23Z</time>
      </trkpt>
      <trkpt lat="42.86088" lon="0.18722">
        <ele>2106</ele>
        <time>2021-11-05T12:28:26Z</time>
      </trkpt>
      <trkpt lat="42.86081" lon="0.18721">
        <ele>2105</ele>
        <time>2021-11-05T12:28:31Z</time>
      </trkpt>
      <trkpt lat="42.86065" lon="0.1873">
        <ele>2102</ele>
        <time>2021-11-05T12:28:45Z</time>
      </trkpt>
      <trkpt lat="42.86061" lon="0.18729">
        <ele>2101</ele>
        <time>2021-11-05T12:28:48Z</time>
      </trkpt>
      <trkpt lat="42.86056" lon="0.18735">
        <ele>2100</ele>
        <time>2021-11-05T12:28:54Z</time>
      </trkpt>
      <trkpt lat="42.86055" lon="0.18741">
        <ele>2099</ele>
        <time>2021-11-05T12:28:57Z</time>
      </trkpt>
      <trkpt lat="42.86048" lon="0.1875">
        <ele>2097</ele>
        <time>2021-11-05T12:29:05Z</time>
      </trkpt>
      <trkpt lat="42.8604" lon="0.18758">
        <ele>2095</ele>
        <time>2021-11-05T12:29:13Z</time>
      </trkpt>
      <trkpt lat="42.86031" lon="0.1876">
        <ele>2093</ele>
        <time>2021-11-05T12:29:20Z</time>
      </trkpt>
      <trkpt lat="42.86026" lon="0.18764">
        <ele>2091</ele>
        <time>2021-11-05T12:29:25Z</time>
      </trkpt>
      <trkpt lat="42.8602" lon="0.18763">
        <ele>2090</ele>
        <time>2021-11-05T12:29:30Z</time>
      </trkpt>
      <trkpt lat="42.86008" lon="0.18774">
        <ele>2087</ele>
        <time>2021-11-05T12:29:41Z</time>
      </trkpt>
      <trkpt lat="42.86004" lon="0.18774">
        <ele>2086</ele>
        <time>2021-11-05T12:29:44Z</time>
      </trkpt>
      <trkpt lat="42.86004" lon="0.18778">
        <ele>2086</ele>
        <time>2021-11-05T12:29:47Z</time>
      </trkpt>
      <trkpt lat="42.86001" lon="0.1878">
        <ele>2085</ele>
        <time>2021-11-05T12:29:49Z</time>
      </trkpt>
      <trkpt lat="42.85998" lon="0.18789">
        <ele>2084</ele>
        <time>2021-11-05T12:29:55Z</time>
      </trkpt>
      <trkpt lat="42.85995" lon="0.18792">
        <ele>2083</ele>
        <time>2021-11-05T12:29:58Z</time>
      </trkpt>
      <trkpt lat="42.85986" lon="0.1879">
        <ele>2082</ele>
        <time>2021-11-05T12:30:06Z</time>
      </trkpt>
      <trkpt lat="42.85982" lon="0.188">
        <ele>2080</ele>
        <time>2021-11-05T12:30:12Z</time>
      </trkpt>
      <trkpt lat="42.8598" lon="0.18809">
        <ele>2079</ele>
        <time>2021-11-05T12:30:18Z</time>
      </trkpt>
      <trkpt lat="42.85976" lon="0.18809">
        <ele>2078</ele>
        <time>2021-11-05T12:30:21Z</time>
      </trkpt>
      <trkpt lat="42.8597" lon="0.18816">
        <ele>2076</ele>
        <time>2021-11-05T12:30:27Z</time>
      </trkpt>
      <trkpt lat="42.85965" lon="0.18818">
        <ele>2074</ele>
        <time>2021-11-05T12:30:31Z</time>
      </trkpt>
      <trkpt lat="42.85962" lon="0.1883">
        <ele>2072</ele>
        <time>2021-11-05T12:30:39Z</time>
      </trkpt>
      <trkpt lat="42.85958" lon="0.18837">
        <ele>2070</ele>
        <time>2021-11-05T12:30:44Z</time>
      </trkpt>
      <trkpt lat="42.85945" lon="0.18842">
        <ele>2065</ele>
        <time>2021-11-05T12:30:55Z</time>
      </trkpt>
      <trkpt lat="42.85938" lon="0.18851">
        <ele>2062</ele>
        <time>2021-11-05T12:31:03Z</time>
      </trkpt>
      <trkpt lat="42.85928" lon="0.18848">
        <ele>2059</ele>
        <time>2021-11-05T12:31:11Z</time>
      </trkpt>
      <trkpt lat="42.85925" lon="0.18849">
        <ele>2058</ele>
        <time>2021-11-05T12:31:13Z</time>
      </trkpt>
      <trkpt lat="42.85923" lon="0.18856">
        <ele>2056</ele>
        <time>2021-11-05T12:31:18Z</time>
      </trkpt>
      <trkpt lat="42.85924" lon="0.18859">
        <ele>2056</ele>
        <time>2021-11-05T12:31:20Z</time>
      </trkpt>
      <trkpt lat="42.8592" lon="0.18864">
        <ele>2054</ele>
        <time>2021-11-05T12:31:24Z</time>
      </trkpt>
      <trkpt lat="42.8591" lon="0.18866">
        <ele>2053</ele>
        <time>2021-11-05T12:31:32Z</time>
      </trkpt>
      <trkpt lat="42.85907" lon="0.18878">
        <ele>2051</ele>
        <time>2021-11-05T12:31:39Z</time>
      </trkpt>
      <trkpt lat="42.85903" lon="0.18882">
        <ele>2050</ele>
        <time>2021-11-05T12:31:43Z</time>
      </trkpt>
      <trkpt lat="42.85899" lon="0.1889">
        <ele>2049</ele>
        <time>2021-11-05T12:31:49Z</time>
      </trkpt>
      <trkpt lat="42.85897" lon="0.18905">
        <ele>2046</ele>
        <time>2021-11-05T12:31:58Z</time>
      </trkpt>
      <trkpt lat="42.85891" lon="0.18911">
        <ele>2045</ele>
        <time>2021-11-05T12:32:04Z</time>
      </trkpt>
      <trkpt lat="42.85882" lon="0.18925">
        <ele>2043</ele>
        <time>2021-11-05T12:32:15Z</time>
      </trkpt>
      <trkpt lat="42.85879" lon="0.18932">
        <ele>2042</ele>
        <time>2021-11-05T12:32:20Z</time>
      </trkpt>
      <trkpt lat="42.8588" lon="0.18937">
        <ele>2042</ele>
        <time>2021-11-05T12:32:23Z</time>
      </trkpt>
      <trkpt lat="42.85873" lon="0.18954">
        <ele>2040</ele>
        <time>2021-11-05T12:32:34Z</time>
      </trkpt>
      <trkpt lat="42.8586" lon="0.18968">
        <ele>2036</ele>
        <time>2021-11-05T12:32:47Z</time>
      </trkpt>
      <trkpt lat="42.85855" lon="0.1897">
        <ele>2035</ele>
        <time>2021-11-05T12:32:52Z</time>
      </trkpt>
      <trkpt lat="42.85849" lon="0.18975">
        <ele>2033</ele>
        <time>2021-11-05T12:32:57Z</time>
      </trkpt>
      <trkpt lat="42.85843" lon="0.18986">
        <ele>2030</ele>
        <time>2021-11-05T12:33:05Z</time>
      </trkpt>
      <trkpt lat="42.85841" lon="0.19004">
        <ele>2028</ele>
        <time>2021-11-05T12:33:16Z</time>
      </trkpt>
      <trkpt lat="42.85844" lon="0.19021">
        <ele>2028</ele>
        <time>2021-11-05T12:33:26Z</time>
      </trkpt>
      <trkpt lat="42.85841" lon="0.19037">
        <ele>2027</ele>
        <time>2021-11-05T12:33:36Z</time>
      </trkpt>
      <trkpt lat="42.85839" lon="0.1904">
        <ele>2026</ele>
        <time>2021-11-05T12:33:38Z</time>
      </trkpt>
      <trkpt lat="42.85834" lon="0.19041">
        <ele>2025</ele>
        <time>2021-11-05T12:33:42Z</time>
      </trkpt>
      <trkpt lat="42.85829" lon="0.19046">
        <ele>2025</ele>
        <time>2021-11-05T12:33:47Z</time>
      </trkpt>
      <trkpt lat="42.85826" lon="0.19053">
        <ele>2025</ele>
        <time>2021-11-05T12:33:52Z</time>
      </trkpt>
      <trkpt lat="42.85818" lon="0.19057">
        <ele>2025</ele>
        <time>2021-11-05T12:33:59Z</time>
      </trkpt>
      <trkpt lat="42.85815" lon="0.19063">
        <ele>2024</ele>
        <time>2021-11-05T12:34:03Z</time>
      </trkpt>
      <trkpt lat="42.85808" lon="0.19066">
        <ele>2024</ele>
        <time>2021-11-05T12:34:09Z</time>
      </trkpt>
      <trkpt lat="42.85806" lon="0.1907">
        <ele>2024</ele>
        <time>2021-11-05T12:34:12Z</time>
      </trkpt>
      <trkpt lat="42.85805" lon="0.19074">
        <ele>2024</ele>
        <time>2021-11-05T12:34:14Z</time>
      </trkpt>
      <trkpt lat="42.85804" lon="0.19112">
        <ele>2024</ele>
        <time>2021-11-05T12:34:37Z</time>
      </trkpt>
      <trkpt lat="42.85794" lon="0.1913">
        <ele>2023</ele>
        <time>2021-11-05T12:34:50Z</time>
      </trkpt>
      <trkpt lat="42.8577" lon="0.19147">
        <ele>2018</ele>
        <time>2021-11-05T12:35:12Z</time>
      </trkpt>
      <trkpt lat="42.85759" lon="0.19159">
        <ele>2014</ele>
        <time>2021-11-05T12:35:23Z</time>
      </trkpt>
      <trkpt lat="42.8575" lon="0.1916">
        <ele>2012</ele>
        <time>2021-11-05T12:35:30Z</time>
      </trkpt>
      <trkpt lat="42.85737" lon="0.19169">
        <ele>2010</ele>
        <time>2021-11-05T12:35:42Z</time>
      </trkpt>
      <trkpt lat="42.85725" lon="0.19179">
        <ele>2011</ele>
        <time>2021-11-05T12:35:53Z</time>
      </trkpt>
      <trkpt lat="42.85699" lon="0.1919">
        <ele>2009</ele>
        <time>2021-11-05T12:36:15Z</time>
      </trkpt>
      <trkpt lat="42.85692" lon="0.19195">
        <ele>2009</ele>
        <time>2021-11-05T12:36:21Z</time>
      </trkpt>
      <trkpt lat="42.85668" lon="0.19195">
        <ele>2006</ele>
        <time>2021-11-05T12:36:40Z</time>
      </trkpt>
      <trkpt lat="42.85647" lon="0.19207">
        <ele>2004</ele>
        <time>2021-11-05T12:36:59Z</time>
      </trkpt>
      <trkpt lat="42.85638" lon="0.19225">
        <ele>2003</ele>
        <time>2021-11-05T12:37:11Z</time>
      </trkpt>
      <trkpt lat="42.85634" lon="0.19242">
        <ele>2002</ele>
        <time>2021-11-05T12:37:22Z</time>
      </trkpt>
      <trkpt lat="42.85623" lon="0.19248">
        <ele>1999</ele>
        <time>2021-11-05T12:37:31Z</time>
      </trkpt>
      <trkpt lat="42.8561" lon="0.19264">
        <ele>1998</ele>
        <time>2021-11-05T12:37:45Z</time>
      </trkpt>
      <trkpt lat="42.85608" lon="0.19264">
        <ele>1997</ele>
        <time>2021-11-05T12:37:47Z</time>
      </trkpt>
      <trkpt lat="42.85604" lon="0.19271">
        <ele>1997</ele>
        <time>2021-11-05T12:37:52Z</time>
      </trkpt>
      <trkpt lat="42.85599" lon="0.19273">
        <ele>1996</ele>
        <time>2021-11-05T12:37:56Z</time>
      </trkpt>
      <trkpt lat="42.85584" lon="0.19285">
        <ele>1994</ele>
        <time>2021-11-05T12:38:10Z</time>
      </trkpt>
      <trkpt lat="42.85574" lon="0.19287">
        <ele>1994</ele>
        <time>2021-11-05T12:38:18Z</time>
      </trkpt>
      <trkpt lat="42.85552" lon="0.19305">
        <ele>1993</ele>
        <time>2021-11-05T12:38:39Z</time>
      </trkpt>
      <trkpt lat="42.85534" lon="0.19305">
        <ele>1992</ele>
        <time>2021-11-05T12:38:53Z</time>
      </trkpt>
      <trkpt lat="42.85526" lon="0.19309">
        <ele>1991</ele>
        <time>2021-11-05T12:39:00Z</time>
      </trkpt>
      <trkpt lat="42.85523" lon="0.19306">
        <ele>1991</ele>
        <time>2021-11-05T12:39:03Z</time>
      </trkpt>
      <trkpt lat="42.85505" lon="0.19303">
        <ele>1989</ele>
        <time>2021-11-05T12:39:18Z</time>
      </trkpt>
      <trkpt lat="42.85491" lon="0.19307">
        <ele>1988</ele>
        <time>2021-11-05T12:39:29Z</time>
      </trkpt>
      <trkpt lat="42.85488" lon="0.19314">
        <ele>1988</ele>
        <time>2021-11-05T12:39:34Z</time>
      </trkpt>
      <trkpt lat="42.85487" lon="0.1933">
        <ele>1986</ele>
        <time>2021-11-05T12:39:43Z</time>
      </trkpt>
      <trkpt lat="42.85482" lon="0.19339">
        <ele>1986</ele>
        <time>2021-11-05T12:39:50Z</time>
      </trkpt>
      <trkpt lat="42.85477" lon="0.19344">
        <ele>1986</ele>
        <time>2021-11-05T12:39:55Z</time>
      </trkpt>
      <trkpt lat="42.85474" lon="0.19351">
        <ele>1986</ele>
        <time>2021-11-05T12:40:00Z</time>
      </trkpt>
      <trkpt lat="42.85474" lon="0.19363">
        <ele>1987</ele>
        <time>2021-11-05T12:40:07Z</time>
      </trkpt>
      <trkpt lat="42.85465" lon="0.19376">
        <ele>1987</ele>
        <time>2021-11-05T12:40:17Z</time>
      </trkpt>
      <trkpt lat="42.85449" lon="0.19388">
        <ele>1986</ele>
        <time>2021-11-05T12:40:32Z</time>
      </trkpt>
      <trkpt lat="42.85432" lon="0.19404">
        <ele>1984</ele>
        <time>2021-11-05T12:40:48Z</time>
      </trkpt>
      <trkpt lat="42.85408" lon="0.19417">
        <ele>1981</ele>
        <time>2021-11-05T12:41:09Z</time>
      </trkpt>
      <trkpt lat="42.85396" lon="0.19426">
        <ele>1982</ele>
        <time>2021-11-05T12:41:20Z</time>
      </trkpt>
      <trkpt lat="42.85386" lon="0.19429">
        <ele>1982</ele>
        <time>2021-11-05T12:41:28Z</time>
      </trkpt>
      <trkpt lat="42.85358" lon="0.1943">
        <ele>1980</ele>
        <time>2021-11-05T12:41:51Z</time>
      </trkpt>
      <trkpt lat="42.85351" lon="0.19435">
        <ele>1980</ele>
        <time>2021-11-05T12:41:57Z</time>
      </trkpt>
      <trkpt lat="42.85342" lon="0.19437">
        <ele>1979</ele>
        <time>2021-11-05T12:42:04Z</time>
      </trkpt>
      <trkpt lat="42.85307" lon="0.19466">
        <ele>1979</ele>
        <time>2021-11-05T12:42:37Z</time>
      </trkpt>
      <trkpt lat="42.85288" lon="0.19475">
        <ele>1978</ele>
        <time>2021-11-05T12:42:53Z</time>
      </trkpt>
      <trkpt lat="42.85275" lon="0.19484">
        <ele>1977</ele>
        <time>2021-11-05T12:43:05Z</time>
      </trkpt>
      <trkpt lat="42.85268" lon="0.19484">
        <ele>1977</ele>
        <time>2021-11-05T12:43:10Z</time>
      </trkpt>
      <trkpt lat="42.85257" lon="0.19492">
        <ele>1976</ele>
        <time>2021-11-05T12:43:20Z</time>
      </trkpt>
      <trkpt lat="42.85253" lon="0.19491">
        <ele>1975</ele>
        <time>2021-11-05T12:43:24Z</time>
      </trkpt>
      <trkpt lat="42.85244" lon="0.19494">
        <ele>1975</ele>
        <time>2021-11-05T12:43:31Z</time>
      </trkpt>
      <trkpt lat="42.85229" lon="0.19492">
        <ele>1973</ele>
        <time>2021-11-05T12:43:43Z</time>
      </trkpt>
      <trkpt lat="42.85215" lon="0.19486">
        <ele>1972</ele>
        <time>2021-11-05T12:43:55Z</time>
      </trkpt>
      <trkpt lat="42.85201" lon="0.19483">
        <ele>1970</ele>
        <time>2021-11-05T12:44:06Z</time>
      </trkpt>
      <trkpt lat="42.85188" lon="0.19475">
        <ele>1968</ele>
        <time>2021-11-05T12:44:18Z</time>
      </trkpt>
      <trkpt lat="42.85185" lon="0.19475">
        <ele>1968</ele>
        <time>2021-11-05T12:44:20Z</time>
      </trkpt>
      <trkpt lat="42.85183" lon="0.19471">
        <ele>1968</ele>
        <time>2021-11-05T12:44:23Z</time>
      </trkpt>
      <trkpt lat="42.85174" lon="0.1947">
        <ele>1967</ele>
        <time>2021-11-05T12:44:30Z</time>
      </trkpt>
      <trkpt lat="42.85173" lon="0.19469">
        <ele>1967</ele>
        <time>2021-11-05T12:44:31Z</time>
      </trkpt>
      <trkpt lat="42.85171" lon="0.19458">
        <ele>1966</ele>
        <time>2021-11-05T12:44:38Z</time>
      </trkpt>
      <trkpt lat="42.85169" lon="0.19455">
        <ele>1965</ele>
        <time>2021-11-05T12:44:40Z</time>
      </trkpt>
      <trkpt lat="42.85158" lon="0.19453">
        <ele>1965</ele>
        <time>2021-11-05T12:44:49Z</time>
      </trkpt>
      <trkpt lat="42.85144" lon="0.19442">
        <ele>1964</ele>
        <time>2021-11-05T12:45:02Z</time>
      </trkpt>
      <trkpt lat="42.85137" lon="0.19429">
        <ele>1962</ele>
        <time>2021-11-05T12:45:11Z</time>
      </trkpt>
      <trkpt lat="42.85128" lon="0.19419">
        <ele>1961</ele>
        <time>2021-11-05T12:45:21Z</time>
      </trkpt>
      <trkpt lat="42.85125" lon="0.19405">
        <ele>1960</ele>
        <time>2021-11-05T12:45:29Z</time>
      </trkpt>
      <trkpt lat="42.85121" lon="0.19397">
        <ele>1960</ele>
        <time>2021-11-05T12:45:35Z</time>
      </trkpt>
      <trkpt lat="42.85125" lon="0.19374">
        <ele>1959</ele>
        <time>2021-11-05T12:45:49Z</time>
      </trkpt>
      <trkpt lat="42.85121" lon="0.19364">
        <ele>1958</ele>
        <time>2021-11-05T12:45:56Z</time>
      </trkpt>
      <trkpt lat="42.85112" lon="0.19361">
        <ele>1957</ele>
        <time>2021-11-05T12:46:03Z</time>
      </trkpt>
      <trkpt lat="42.851" lon="0.19361">
        <ele>1956</ele>
        <time>2021-11-05T12:46:13Z</time>
      </trkpt>
      <trkpt lat="42.85093" lon="0.19343">
        <ele>1955</ele>
        <time>2021-11-05T12:46:25Z</time>
      </trkpt>
      <trkpt lat="42.85084" lon="0.1933">
        <ele>1953</ele>
        <time>2021-11-05T12:46:35Z</time>
      </trkpt>
      <trkpt lat="42.85081" lon="0.19329">
        <ele>1953</ele>
        <time>2021-11-05T12:46:38Z</time>
      </trkpt>
      <trkpt lat="42.85074" lon="0.19332">
        <ele>1952</ele>
        <time>2021-11-05T12:46:43Z</time>
      </trkpt>
      <trkpt lat="42.85062" lon="0.19351">
        <ele>1953</ele>
        <time>2021-11-05T12:46:58Z</time>
      </trkpt>
      <trkpt lat="42.85058" lon="0.19352">
        <ele>1952</ele>
        <time>2021-11-05T12:47:01Z</time>
      </trkpt>
      <trkpt lat="42.85047" lon="0.19368">
        <ele>1952</ele>
        <time>2021-11-05T12:47:14Z</time>
      </trkpt>
      <trkpt lat="42.85038" lon="0.19377">
        <ele>1952</ele>
        <time>2021-11-05T12:47:23Z</time>
      </trkpt>
      <trkpt lat="42.85031" lon="0.19381">
        <ele>1951</ele>
        <time>2021-11-05T12:47:29Z</time>
      </trkpt>
      <trkpt lat="42.85026" lon="0.19393">
        <ele>1951</ele>
        <time>2021-11-05T12:47:37Z</time>
      </trkpt>
      <trkpt lat="42.85018" lon="0.19403">
        <ele>1951</ele>
        <time>2021-11-05T12:47:46Z</time>
      </trkpt>
      <trkpt lat="42.85001" lon="0.19404">
        <ele>1949</ele>
        <time>2021-11-05T12:48:00Z</time>
      </trkpt>
      <trkpt lat="42.84996" lon="0.19396">
        <ele>1948</ele>
        <time>2021-11-05T12:48:06Z</time>
      </trkpt>
      <trkpt lat="42.84985" lon="0.19391">
        <ele>1948</ele>
        <time>2021-11-05T12:48:15Z</time>
      </trkpt>
      <trkpt lat="42.84982" lon="0.19386">
        <ele>1947</ele>
        <time>2021-11-05T12:48:19Z</time>
      </trkpt>
      <trkpt lat="42.84975" lon="0.19386">
        <ele>1947</ele>
        <time>2021-11-05T12:48:25Z</time>
      </trkpt>
      <trkpt lat="42.84967" lon="0.19381">
        <ele>1946</ele>
        <time>2021-11-05T12:48:32Z</time>
      </trkpt>
      <trkpt lat="42.84962" lon="0.19381">
        <ele>1946</ele>
        <time>2021-11-05T12:48:36Z</time>
      </trkpt>
      <trkpt lat="42.84948" lon="0.19388">
        <ele>1945</ele>
        <time>2021-11-05T12:48:48Z</time>
      </trkpt>
      <trkpt lat="42.8494" lon="0.19395">
        <ele>1945</ele>
        <time>2021-11-05T12:48:55Z</time>
      </trkpt>
      <trkpt lat="42.84933" lon="0.19414">
        <ele>1945</ele>
        <time>2021-11-05T12:49:08Z</time>
      </trkpt>
      <trkpt lat="42.84926" lon="0.19422">
        <ele>1945</ele>
        <time>2021-11-05T12:49:15Z</time>
      </trkpt>
      <trkpt lat="42.84924" lon="0.19432">
        <ele>1947</ele>
        <time>2021-11-05T12:49:21Z</time>
      </trkpt>
      <trkpt lat="42.84912" lon="0.19435">
        <ele>1946</ele>
        <time>2021-11-05T12:49:31Z</time>
      </trkpt>
      <trkpt lat="42.84902" lon="0.19432">
        <ele>1945</ele>
        <time>2021-11-05T12:49:39Z</time>
      </trkpt>
      <trkpt lat="42.84898" lon="0.19438">
        <ele>1945</ele>
        <time>2021-11-05T12:49:44Z</time>
      </trkpt>
      <trkpt lat="42.84869" lon="0.1946">
        <ele>1945</ele>
        <time>2021-11-05T12:50:10Z</time>
      </trkpt>
      <trkpt lat="42.84859" lon="0.19473">
        <ele>1945</ele>
        <time>2021-11-05T12:50:21Z</time>
      </trkpt>
      <trkpt lat="42.84854" lon="0.19475">
        <ele>1944</ele>
        <time>2021-11-05T12:50:26Z</time>
      </trkpt>
      <trkpt lat="42.84806" lon="0.19478">
        <ele>1939</ele>
        <time>2021-11-05T12:51:04Z</time>
      </trkpt>
      <trkpt lat="42.84801" lon="0.19474">
        <ele>1939</ele>
        <time>2021-11-05T12:51:09Z</time>
      </trkpt>
      <trkpt lat="42.84798" lon="0.19476">
        <ele>1938</ele>
        <time>2021-11-05T12:51:11Z</time>
      </trkpt>
      <trkpt lat="42.84796" lon="0.19474">
        <ele>1938</ele>
        <time>2021-11-05T12:51:13Z</time>
      </trkpt>
      <trkpt lat="42.84793" lon="0.19476">
        <ele>1938</ele>
        <time>2021-11-05T12:51:16Z</time>
      </trkpt>
      <trkpt lat="42.8479" lon="0.19476">
        <ele>1938</ele>
        <time>2021-11-05T12:51:18Z</time>
      </trkpt>
      <trkpt lat="42.84785" lon="0.19469">
        <ele>1937</ele>
        <time>2021-11-05T12:51:24Z</time>
      </trkpt>
      <trkpt lat="42.84782" lon="0.19472">
        <ele>1937</ele>
        <time>2021-11-05T12:51:27Z</time>
      </trkpt>
      <trkpt lat="42.84779" lon="0.19468">
        <ele>1936</ele>
        <time>2021-11-05T12:51:30Z</time>
      </trkpt>
      <trkpt lat="42.84777" lon="0.19468">
        <ele>1936</ele>
        <time>2021-11-05T12:51:32Z</time>
      </trkpt>
      <trkpt lat="42.84772" lon="0.19471">
        <ele>1935</ele>
        <time>2021-11-05T12:51:36Z</time>
      </trkpt>
      <trkpt lat="42.8477" lon="0.19467">
        <ele>1935</ele>
        <time>2021-11-05T12:51:39Z</time>
      </trkpt>
      <trkpt lat="42.84762" lon="0.19468">
        <ele>1934</ele>
        <time>2021-11-05T12:51:46Z</time>
      </trkpt>
      <trkpt lat="42.84762" lon="0.19462">
        <ele>1934</ele>
        <time>2021-11-05T12:51:49Z</time>
      </trkpt>
      <trkpt lat="42.84758" lon="0.19459">
        <ele>1933</ele>
        <time>2021-11-05T12:51:53Z</time>
      </trkpt>
      <trkpt lat="42.84757" lon="0.19454">
        <ele>1933</ele>
        <time>2021-11-05T12:51:56Z</time>
      </trkpt>
      <trkpt lat="42.84756" lon="0.19453">
        <ele>1933</ele>
        <time>2021-11-05T12:51:57Z</time>
      </trkpt>
      <trkpt lat="42.84749" lon="0.19452">
        <ele>1932</ele>
        <time>2021-11-05T12:52:03Z</time>
      </trkpt>
      <trkpt lat="42.84744" lon="0.19454">
        <ele>1931</ele>
        <time>2021-11-05T12:52:07Z</time>
      </trkpt>
      <trkpt lat="42.8474" lon="0.19453">
        <ele>1930</ele>
        <time>2021-11-05T12:52:10Z</time>
      </trkpt>
      <trkpt lat="42.84736" lon="0.19444">
        <ele>1929</ele>
        <time>2021-11-05T12:52:16Z</time>
      </trkpt>
      <trkpt lat="42.84732" lon="0.19441">
        <ele>1928</ele>
        <time>2021-11-05T12:52:20Z</time>
      </trkpt>
      <trkpt lat="42.84726" lon="0.19441">
        <ele>1927</ele>
        <time>2021-11-05T12:52:25Z</time>
      </trkpt>
      <trkpt lat="42.84721" lon="0.19444">
        <ele>1927</ele>
        <time>2021-11-05T12:52:29Z</time>
      </trkpt>
      <trkpt lat="42.84715" lon="0.19442">
        <ele>1926</ele>
        <time>2021-11-05T12:52:34Z</time>
      </trkpt>
      <trkpt lat="42.84711" lon="0.19447">
        <ele>1925</ele>
        <time>2021-11-05T12:52:38Z</time>
      </trkpt>
      <trkpt lat="42.84706" lon="0.19446">
        <ele>1924</ele>
        <time>2021-11-05T12:52:42Z</time>
      </trkpt>
      <trkpt lat="42.84705" lon="0.19447">
        <ele>1924</ele>
        <time>2021-11-05T12:52:43Z</time>
      </trkpt>
      <trkpt lat="42.84702" lon="0.19446">
        <ele>1924</ele>
        <time>2021-11-05T12:52:46Z</time>
      </trkpt>
      <trkpt lat="42.847" lon="0.19448">
        <ele>1923</ele>
        <time>2021-11-05T12:52:48Z</time>
      </trkpt>
      <trkpt lat="42.84698" lon="0.19446">
        <ele>1923</ele>
        <time>2021-11-05T12:52:50Z</time>
      </trkpt>
      <trkpt lat="42.84694" lon="0.19447">
        <ele>1922</ele>
        <time>2021-11-05T12:52:53Z</time>
      </trkpt>
      <trkpt lat="42.84693" lon="0.19449">
        <ele>1922</ele>
        <time>2021-11-05T12:52:54Z</time>
      </trkpt>
      <trkpt lat="42.84694" lon="0.19454">
        <ele>1922</ele>
        <time>2021-11-05T12:52:57Z</time>
      </trkpt>
      <trkpt lat="42.84683" lon="0.19466">
        <ele>1920</ele>
        <time>2021-11-05T12:53:09Z</time>
      </trkpt>
      <trkpt lat="42.84675" lon="0.19467">
        <ele>1919</ele>
        <time>2021-11-05T12:53:15Z</time>
      </trkpt>
      <trkpt lat="42.84673" lon="0.19463">
        <ele>1919</ele>
        <time>2021-11-05T12:53:18Z</time>
      </trkpt>
      <trkpt lat="42.84671" lon="0.19462">
        <ele>1918</ele>
        <time>2021-11-05T12:53:20Z</time>
      </trkpt>
      <trkpt lat="42.84657" lon="0.19473">
        <ele>1916</ele>
        <time>2021-11-05T12:53:33Z</time>
      </trkpt>
      <trkpt lat="42.84651" lon="0.19473">
        <ele>1916</ele>
        <time>2021-11-05T12:53:37Z</time>
      </trkpt>
      <trkpt lat="42.84645" lon="0.19477">
        <ele>1915</ele>
        <time>2021-11-05T12:53:43Z</time>
      </trkpt>
      <trkpt lat="42.84632" lon="0.19473">
        <ele>1914</ele>
        <time>2021-11-05T12:53:54Z</time>
      </trkpt>
      <trkpt lat="42.84629" lon="0.19467">
        <ele>1914</ele>
        <time>2021-11-05T12:53:58Z</time>
      </trkpt>
      <trkpt lat="42.84619" lon="0.19471">
        <ele>1913</ele>
        <time>2021-11-05T12:54:06Z</time>
      </trkpt>
      <trkpt lat="42.84601" lon="0.19473">
        <ele>1911</ele>
        <time>2021-11-05T12:54:21Z</time>
      </trkpt>
      <trkpt lat="42.84573" lon="0.19472">
        <ele>1909</ele>
        <time>2021-11-05T12:54:43Z</time>
      </trkpt>
      <trkpt lat="42.84563" lon="0.1948">
        <ele>1907</ele>
        <time>2021-11-05T12:54:52Z</time>
      </trkpt>
      <trkpt lat="42.84558" lon="0.19488">
        <ele>1906</ele>
        <time>2021-11-05T12:54:58Z</time>
      </trkpt>
      <trkpt lat="42.84553" lon="0.19498">
        <ele>1905</ele>
        <time>2021-11-05T12:55:06Z</time>
      </trkpt>
      <trkpt lat="42.84553" lon="0.19504">
        <ele>1905</ele>
        <time>2021-11-05T12:55:09Z</time>
      </trkpt>
      <trkpt lat="42.84545" lon="0.19505">
        <ele>1904</ele>
        <time>2021-11-05T12:55:16Z</time>
      </trkpt>
      <trkpt lat="42.84542" lon="0.1951">
        <ele>1904</ele>
        <time>2021-11-05T12:55:19Z</time>
      </trkpt>
      <trkpt lat="42.84539" lon="0.1951">
        <ele>1904</ele>
        <time>2021-11-05T12:55:22Z</time>
      </trkpt>
      <trkpt lat="42.84534" lon="0.19515">
        <ele>1903</ele>
        <time>2021-11-05T12:55:27Z</time>
      </trkpt>
      <trkpt lat="42.84534" lon="0.19518">
        <ele>1903</ele>
        <time>2021-11-05T12:55:28Z</time>
      </trkpt>
      <trkpt lat="42.84523" lon="0.1953">
        <ele>1902</ele>
        <time>2021-11-05T12:55:40Z</time>
      </trkpt>
      <trkpt lat="42.84524" lon="0.19534">
        <ele>1902</ele>
        <time>2021-11-05T12:55:42Z</time>
      </trkpt>
      <trkpt lat="42.84522" lon="0.19537">
        <ele>1902</ele>
        <time>2021-11-05T12:55:45Z</time>
      </trkpt>
      <trkpt lat="42.84515" lon="0.19541">
        <ele>1902</ele>
        <time>2021-11-05T12:55:51Z</time>
      </trkpt>
      <trkpt lat="42.84512" lon="0.19546">
        <ele>1901</ele>
        <time>2021-11-05T12:55:54Z</time>
      </trkpt>
      <trkpt lat="42.8451" lon="0.19556">
        <ele>1901</ele>
        <time>2021-11-05T12:56:01Z</time>
      </trkpt>
      <trkpt lat="42.84498" lon="0.1956">
        <ele>1900</ele>
        <time>2021-11-05T12:56:10Z</time>
      </trkpt>
      <trkpt lat="42.84491" lon="0.19559">
        <ele>1898</ele>
        <time>2021-11-05T12:56:16Z</time>
      </trkpt>
      <trkpt lat="42.84482" lon="0.19567">
        <ele>1896</ele>
        <time>2021-11-05T12:56:25Z</time>
      </trkpt>
      <trkpt lat="42.84478" lon="0.19567">
        <ele>1895</ele>
        <time>2021-11-05T12:56:28Z</time>
      </trkpt>
      <trkpt lat="42.84474" lon="0.19563">
        <ele>1894</ele>
        <time>2021-11-05T12:56:32Z</time>
      </trkpt>
      <trkpt lat="42.84469" lon="0.19563">
        <ele>1892</ele>
        <time>2021-11-05T12:56:36Z</time>
      </trkpt>
      <trkpt lat="42.84453" lon="0.19573">
        <ele>1888</ele>
        <time>2021-11-05T12:56:50Z</time>
      </trkpt>
      <trkpt lat="42.84441" lon="0.19585">
        <ele>1884</ele>
        <time>2021-11-05T12:57:02Z</time>
      </trkpt>
      <trkpt lat="42.84438" lon="0.19584">
        <ele>1884</ele>
        <time>2021-11-05T12:57:04Z</time>
      </trkpt>
      <trkpt lat="42.84433" lon="0.19578">
        <ele>1883</ele>
        <time>2021-11-05T12:57:10Z</time>
      </trkpt>
      <trkpt lat="42.84429" lon="0.19581">
        <ele>1881</ele>
        <time>2021-11-05T12:57:13Z</time>
      </trkpt>
      <trkpt lat="42.84423" lon="0.19581">
        <ele>1880</ele>
        <time>2021-11-05T12:57:18Z</time>
      </trkpt>
      <trkpt lat="42.84419" lon="0.19583">
        <ele>1879</ele>
        <time>2021-11-05T12:57:22Z</time>
      </trkpt>
      <trkpt lat="42.84419" lon="0.19587">
        <ele>1879</ele>
        <time>2021-11-05T12:57:24Z</time>
      </trkpt>
      <trkpt lat="42.84415" lon="0.19589">
        <ele>1878</ele>
        <time>2021-11-05T12:57:27Z</time>
      </trkpt>
      <trkpt lat="42.84405" lon="0.19593">
        <ele>1877</ele>
        <time>2021-11-05T12:57:36Z</time>
      </trkpt>
      <trkpt lat="42.84399" lon="0.19598">
        <ele>1876</ele>
        <time>2021-11-05T12:57:41Z</time>
      </trkpt>
      <trkpt lat="42.84386" lon="0.19602">
        <ele>1874</ele>
        <time>2021-11-05T12:57:52Z</time>
      </trkpt>
      <trkpt lat="42.84383" lon="0.19605">
        <ele>1874</ele>
        <time>2021-11-05T12:57:55Z</time>
      </trkpt>
      <trkpt lat="42.84383" lon="0.1961">
        <ele>1874</ele>
        <time>2021-11-05T12:57:58Z</time>
      </trkpt>
      <trkpt lat="42.84381" lon="0.19612">
        <ele>1873</ele>
        <time>2021-11-05T12:58:00Z</time>
      </trkpt>
      <trkpt lat="42.84377" lon="0.19611">
        <ele>1873</ele>
        <time>2021-11-05T12:58:03Z</time>
      </trkpt>
      <trkpt lat="42.84375" lon="0.19615">
        <ele>1872</ele>
        <time>2021-11-05T12:58:06Z</time>
      </trkpt>
      <trkpt lat="42.8437" lon="0.19618">
        <ele>1871</ele>
        <time>2021-11-05T12:58:10Z</time>
      </trkpt>
      <trkpt lat="42.84368" lon="0.19622">
        <ele>1871</ele>
        <time>2021-11-05T12:58:13Z</time>
      </trkpt>
      <trkpt lat="42.8436" lon="0.19615">
        <ele>1869</ele>
        <time>2021-11-05T12:58:21Z</time>
      </trkpt>
      <trkpt lat="42.84356" lon="0.19618">
        <ele>1869</ele>
        <time>2021-11-05T12:58:24Z</time>
      </trkpt>
      <trkpt lat="42.84345" lon="0.1962">
        <ele>1867</ele>
        <time>2021-11-05T12:58:33Z</time>
      </trkpt>
      <trkpt lat="42.84339" lon="0.19624">
        <ele>1865</ele>
        <time>2021-11-05T12:58:39Z</time>
      </trkpt>
      <trkpt lat="42.84334" lon="0.19633">
        <ele>1864</ele>
        <time>2021-11-05T12:58:45Z</time>
      </trkpt>
      <trkpt lat="42.84327" lon="0.19655">
        <ele>1861</ele>
        <time>2021-11-05T12:58:59Z</time>
      </trkpt>
      <trkpt lat="42.84298" lon="0.19692">
        <ele>1857</ele>
        <time>2021-11-05T12:59:31Z</time>
      </trkpt>
      <trkpt lat="42.84293" lon="0.19706">
        <ele>1857</ele>
        <time>2021-11-05T12:59:40Z</time>
      </trkpt>
      <trkpt lat="42.8429" lon="0.19707">
        <ele>1857</ele>
        <time>2021-11-05T12:59:43Z</time>
      </trkpt>
      <trkpt lat="42.84287" lon="0.19704">
        <ele>1856</ele>
        <time>2021-11-05T12:59:46Z</time>
      </trkpt>
      <trkpt lat="42.84283" lon="0.19705">
        <ele>1856</ele>
        <time>2021-11-05T12:59:49Z</time>
      </trkpt>
      <trkpt lat="42.84279" lon="0.19711">
        <ele>1855</ele>
        <time>2021-11-05T12:59:54Z</time>
      </trkpt>
      <trkpt lat="42.84278" lon="0.19716">
        <ele>1855</ele>
        <time>2021-11-05T12:59:57Z</time>
      </trkpt>
      <trkpt lat="42.84273" lon="0.1972">
        <ele>1854</ele>
        <time>2021-11-05T13:00:01Z</time>
      </trkpt>
      <trkpt lat="42.84271" lon="0.19728">
        <ele>1854</ele>
        <time>2021-11-05T13:00:06Z</time>
      </trkpt>
      <trkpt lat="42.84267" lon="0.19732">
        <ele>1854</ele>
        <time>2021-11-05T13:00:10Z</time>
      </trkpt>
      <trkpt lat="42.8425" lon="0.1976">
        <ele>1852</ele>
        <time>2021-11-05T13:00:32Z</time>
      </trkpt>
      <trkpt lat="42.84241" lon="0.19767">
        <ele>1852</ele>
        <time>2021-11-05T13:00:40Z</time>
      </trkpt>
      <trkpt lat="42.84241" lon="0.1977">
        <ele>1853</ele>
        <time>2021-11-05T13:00:42Z</time>
      </trkpt>
      <trkpt lat="42.84239" lon="0.19774">
        <ele>1853</ele>
        <time>2021-11-05T13:00:45Z</time>
      </trkpt>
      <trkpt lat="42.84234" lon="0.19775">
        <ele>1853</ele>
        <time>2021-11-05T13:00:49Z</time>
      </trkpt>
      <trkpt lat="42.8422" lon="0.19785">
        <ele>1852</ele>
        <time>2021-11-05T13:01:01Z</time>
      </trkpt>
      <trkpt lat="42.84208" lon="0.19787">
        <ele>1851</ele>
        <time>2021-11-05T13:01:11Z</time>
      </trkpt>
      <trkpt lat="42.84208" lon="0.1979">
        <ele>1852</ele>
        <time>2021-11-05T13:01:13Z</time>
      </trkpt>
      <trkpt lat="42.84208" lon="0.19791">
        <ele>1852</ele>
        <time>2021-11-05T13:01:13Z</time>
      </trkpt>
      <trkpt lat="42.8421" lon="0.19792">
        <ele>1852</ele>
        <time>2021-11-05T13:01:15Z</time>
      </trkpt>
      <trkpt lat="42.84211" lon="0.19795">
        <ele>1853</ele>
        <time>2021-11-05T13:01:17Z</time>
      </trkpt>
      <trkpt lat="42.8421" lon="0.19801">
        <ele>1853</ele>
        <time>2021-11-05T13:01:21Z</time>
      </trkpt>
      <trkpt lat="42.84203" lon="0.19809">
        <ele>1854</ele>
        <time>2021-11-05T13:01:28Z</time>
      </trkpt>
      <trkpt lat="42.84199" lon="0.19825">
        <ele>1855</ele>
        <time>2021-11-05T13:01:38Z</time>
      </trkpt>
      <trkpt lat="42.84196" lon="0.1983">
        <ele>1856</ele>
        <time>2021-11-05T13:01:42Z</time>
      </trkpt>
      <trkpt lat="42.84194" lon="0.19849">
        <ele>1859</ele>
        <time>2021-11-05T13:01:53Z</time>
      </trkpt>
      <trkpt lat="42.84188" lon="0.19851">
        <ele>1858</ele>
        <time>2021-11-05T13:01:58Z</time>
      </trkpt>
      <trkpt lat="42.84187" lon="0.19857">
        <ele>1859</ele>
        <time>2021-11-05T13:02:01Z</time>
      </trkpt>
      <trkpt lat="42.84182" lon="0.19908">
        <ele>1866</ele>
        <time>2021-11-05T13:02:32Z</time>
      </trkpt>
      <trkpt lat="42.8416" lon="0.19973">
        <ele>1875</ele>
        <time>2021-11-05T13:03:14Z</time>
      </trkpt>
      <trkpt lat="42.8415" lon="0.19993">
        <ele>1878</ele>
        <time>2021-11-05T13:03:28Z</time>
      </trkpt>
      <trkpt lat="42.8415" lon="0.19999">
        <ele>1880</ele>
        <time>2021-11-05T13:03:31Z</time>
      </trkpt>
      <trkpt lat="42.84145" lon="0.20003">
        <ele>1880</ele>
        <time>2021-11-05T13:03:36Z</time>
      </trkpt>
      <trkpt lat="42.84146" lon="0.20009">
        <ele>1883</ele>
        <time>2021-11-05T13:03:40Z</time>
      </trkpt>
      <trkpt lat="42.84144" lon="0.20013">
        <ele>1884</ele>
        <time>2021-11-05T13:03:43Z</time>
      </trkpt>
      <trkpt lat="42.84136" lon="0.20022">
        <ele>1886</ele>
        <time>2021-11-05T13:03:51Z</time>
      </trkpt>
      <trkpt lat="42.84132" lon="0.20021">
        <ele>1884</ele>
        <time>2021-11-05T13:03:54Z</time>
      </trkpt>
      <trkpt lat="42.84121" lon="0.20036">
        <ele>1888</ele>
        <time>2021-11-05T13:04:07Z</time>
      </trkpt>
      <trkpt lat="42.84118" lon="0.20037">
        <ele>1888</ele>
        <time>2021-11-05T13:04:09Z</time>
      </trkpt>
      <trkpt lat="42.84116" lon="0.20037">
        <ele>1887</ele>
        <time>2021-11-05T13:04:11Z</time>
      </trkpt>
      <trkpt lat="42.84113" lon="0.20027">
        <ele>1883</ele>
        <time>2021-11-05T13:04:17Z</time>
      </trkpt>
      <trkpt lat="42.8411" lon="0.20024">
        <ele>1881</ele>
        <time>2021-11-05T13:04:20Z</time>
      </trkpt>
      <trkpt lat="42.84094" lon="0.20029">
        <ele>1880</ele>
        <time>2021-11-05T13:04:33Z</time>
      </trkpt>
      <trkpt lat="42.84081" lon="0.2002">
        <ele>1874</ele>
        <time>2021-11-05T13:04:45Z</time>
      </trkpt>
      <trkpt lat="42.84078" lon="0.20019">
        <ele>1873</ele>
        <time>2021-11-05T13:04:47Z</time>
      </trkpt>
      <trkpt lat="42.84071" lon="0.20024">
        <ele>1874</ele>
        <time>2021-11-05T13:04:54Z</time>
      </trkpt>
      <trkpt lat="42.84064" lon="0.20024">
        <ele>1873</ele>
        <time>2021-11-05T13:04:59Z</time>
      </trkpt>
      <trkpt lat="42.84056" lon="0.2003">
        <ele>1875</ele>
        <time>2021-11-05T13:05:06Z</time>
      </trkpt>
      <trkpt lat="42.84047" lon="0.20028">
        <ele>1873</ele>
        <time>2021-11-05T13:05:14Z</time>
      </trkpt>
      <trkpt lat="42.84043" lon="0.20033">
        <ele>1874</ele>
        <time>2021-11-05T13:05:18Z</time>
      </trkpt>
      <trkpt lat="42.84041" lon="0.2004">
        <ele>1877</ele>
        <time>2021-11-05T13:05:23Z</time>
      </trkpt>
      <trkpt lat="42.84028" lon="0.20055">
        <ele>1881</ele>
        <time>2021-11-05T13:05:36Z</time>
      </trkpt>
      <trkpt lat="42.84026" lon="0.20065">
        <ele>1884</ele>
        <time>2021-11-05T13:05:42Z</time>
      </trkpt>
      <trkpt lat="42.84021" lon="0.20071">
        <ele>1886</ele>
        <time>2021-11-05T13:05:48Z</time>
      </trkpt>
      <trkpt lat="42.84019" lon="0.20079">
        <ele>1889</ele>
        <time>2021-11-05T13:05:53Z</time>
      </trkpt>
      <trkpt lat="42.84004" lon="0.20083">
        <ele>1889</ele>
        <time>2021-11-05T13:06:05Z</time>
      </trkpt>
      <trkpt lat="42.83996" lon="0.20091">
        <ele>1892</ele>
        <time>2021-11-05T13:06:13Z</time>
      </trkpt>
      <trkpt lat="42.83986" lon="0.20098">
        <ele>1893</ele>
        <time>2021-11-05T13:06:22Z</time>
      </trkpt>
      <trkpt lat="42.83981" lon="0.20105">
        <ele>1894</ele>
        <time>2021-11-05T13:06:27Z</time>
      </trkpt>
      <trkpt lat="42.83971" lon="0.20117">
        <ele>1897</ele>
        <time>2021-11-05T13:06:38Z</time>
      </trkpt>
      <trkpt lat="42.83955" lon="0.20133">
        <ele>1900</ele>
        <time>2021-11-05T13:06:54Z</time>
      </trkpt>
      <trkpt lat="42.83941" lon="0.20141">
        <ele>1900</ele>
        <time>2021-11-05T13:07:06Z</time>
      </trkpt>
      <trkpt lat="42.83927" lon="0.20159">
        <ele>1904</ele>
        <time>2021-11-05T13:07:22Z</time>
      </trkpt>
      <trkpt lat="42.83923" lon="0.20165">
        <ele>1905</ele>
        <time>2021-11-05T13:07:26Z</time>
      </trkpt>
      <trkpt lat="42.83922" lon="0.2017">
        <ele>1907</ele>
        <time>2021-11-05T13:07:29Z</time>
      </trkpt>
      <trkpt lat="42.83918" lon="0.20175">
        <ele>1909</ele>
        <time>2021-11-05T13:07:34Z</time>
      </trkpt>
      <trkpt lat="42.83909" lon="0.20176">
        <ele>1908</ele>
        <time>2021-11-05T13:07:41Z</time>
      </trkpt>
      <trkpt lat="42.83904" lon="0.20182">
        <ele>1910</ele>
        <time>2021-11-05T13:07:46Z</time>
      </trkpt>
      <trkpt lat="42.83886" lon="0.20213">
        <ele>1924</ele>
        <time>2021-11-05T13:08:09Z</time>
      </trkpt>
      <trkpt lat="42.83881" lon="0.20217">
        <ele>1925</ele>
        <time>2021-11-05T13:08:14Z</time>
      </trkpt>
      <trkpt lat="42.83855" lon="0.20224">
        <ele>1923</ele>
        <time>2021-11-05T13:08:35Z</time>
      </trkpt>
      <trkpt lat="42.8385" lon="0.20234">
        <ele>1926</ele>
        <time>2021-11-05T13:08:42Z</time>
      </trkpt>
      <trkpt lat="42.83834" lon="0.20235">
        <ele>1923</ele>
        <time>2021-11-05T13:08:55Z</time>
      </trkpt>
      <trkpt lat="42.83828" lon="0.20244">
        <ele>1926</ele>
        <time>2021-11-05T13:09:02Z</time>
      </trkpt>
      <trkpt lat="42.83825" lon="0.20256">
        <ele>1930</ele>
        <time>2021-11-05T13:09:10Z</time>
      </trkpt>
      <trkpt lat="42.83821" lon="0.20263">
        <ele>1932</ele>
        <time>2021-11-05T13:09:15Z</time>
      </trkpt>
      <trkpt lat="42.83817" lon="0.20264">
        <ele>1932</ele>
        <time>2021-11-05T13:09:18Z</time>
      </trkpt>
      <trkpt lat="42.83812" lon="0.20272">
        <ele>1934</ele>
        <time>2021-11-05T13:09:25Z</time>
      </trkpt>
      <trkpt lat="42.83803" lon="0.20272">
        <ele>1931</ele>
        <time>2021-11-05T13:09:32Z</time>
      </trkpt>
      <trkpt lat="42.83792" lon="0.20285">
        <ele>1934</ele>
        <time>2021-11-05T13:09:43Z</time>
      </trkpt>
      <trkpt lat="42.83786" lon="0.20285">
        <ele>1933</ele>
        <time>2021-11-05T13:09:48Z</time>
      </trkpt>
      <trkpt lat="42.83785" lon="0.20288">
        <ele>1934</ele>
        <time>2021-11-05T13:09:50Z</time>
      </trkpt>
      <trkpt lat="42.83782" lon="0.20287">
        <ele>1933</ele>
        <time>2021-11-05T13:09:53Z</time>
      </trkpt>
      <trkpt lat="42.8378" lon="0.20291">
        <ele>1934</ele>
        <time>2021-11-05T13:09:55Z</time>
      </trkpt>
      <trkpt lat="42.83775" lon="0.20292">
        <ele>1933</ele>
        <time>2021-11-05T13:09:59Z</time>
      </trkpt>
      <trkpt lat="42.8377" lon="0.20291">
        <ele>1931</ele>
        <time>2021-11-05T13:10:04Z</time>
      </trkpt>
      <trkpt lat="42.83766" lon="0.20293">
        <ele>1931</ele>
        <time>2021-11-05T13:10:07Z</time>
      </trkpt>
      <trkpt lat="42.83762" lon="0.20295">
        <ele>1931</ele>
        <time>2021-11-05T13:10:10Z</time>
      </trkpt>
      <trkpt lat="42.83758" lon="0.20306">
        <ele>1935</ele>
        <time>2021-11-05T13:10:18Z</time>
      </trkpt>
      <trkpt lat="42.83742" lon="0.20319">
        <ele>1937</ele>
        <time>2021-11-05T13:10:32Z</time>
      </trkpt>
      <trkpt lat="42.83727" lon="0.20329">
        <ele>1939</ele>
        <time>2021-11-05T13:10:46Z</time>
      </trkpt>
      <trkpt lat="42.83711" lon="0.20349">
        <ele>1944</ele>
        <time>2021-11-05T13:11:03Z</time>
      </trkpt>
      <trkpt lat="42.83701" lon="0.20357">
        <ele>1945</ele>
        <time>2021-11-05T13:11:12Z</time>
      </trkpt>
      <trkpt lat="42.8367" lon="0.20394">
        <ele>1952</ele>
        <time>2021-11-05T13:11:45Z</time>
      </trkpt>
      <trkpt lat="42.83664" lon="0.20398">
        <ele>1952</ele>
        <time>2021-11-05T13:11:51Z</time>
      </trkpt>
      <trkpt lat="42.83661" lon="0.20406">
        <ele>1955</ele>
        <time>2021-11-05T13:11:56Z</time>
      </trkpt>
      <trkpt lat="42.83653" lon="0.20411">
        <ele>1954</ele>
        <time>2021-11-05T13:12:03Z</time>
      </trkpt>
      <trkpt lat="42.83648" lon="0.20418">
        <ele>1955</ele>
        <time>2021-11-05T13:12:09Z</time>
      </trkpt>
      <trkpt lat="42.8364" lon="0.20423">
        <ele>1955</ele>
        <time>2021-11-05T13:12:16Z</time>
      </trkpt>
      <trkpt lat="42.83628" lon="0.2044">
        <ele>1957</ele>
        <time>2021-11-05T13:12:30Z</time>
      </trkpt>
      <trkpt lat="42.83609" lon="0.20456">
        <ele>1957</ele>
        <time>2021-11-05T13:12:48Z</time>
      </trkpt>
      <trkpt lat="42.83594" lon="0.20473">
        <ele>1959</ele>
        <time>2021-11-05T13:13:03Z</time>
      </trkpt>
      <trkpt lat="42.83588" lon="0.20477">
        <ele>1959</ele>
        <time>2021-11-05T13:13:09Z</time>
      </trkpt>
      <trkpt lat="42.8358" lon="0.20495">
        <ele>1962</ele>
        <time>2021-11-05T13:13:21Z</time>
      </trkpt>
      <trkpt lat="42.83579" lon="0.2051">
        <ele>1966</ele>
        <time>2021-11-05T13:13:30Z</time>
      </trkpt>
      <trkpt lat="42.83573" lon="0.2054">
        <ele>1973</ele>
        <time>2021-11-05T13:13:48Z</time>
      </trkpt>
      <trkpt lat="42.83564" lon="0.20566">
        <ele>1980</ele>
        <time>2021-11-05T13:14:05Z</time>
      </trkpt>
      <trkpt lat="42.83561" lon="0.20571">
        <ele>1981</ele>
        <time>2021-11-05T13:14:09Z</time>
      </trkpt>
      <trkpt lat="42.83557" lon="0.20571">
        <ele>1980</ele>
        <time>2021-11-05T13:14:12Z</time>
      </trkpt>
      <trkpt lat="42.83541" lon="0.20567">
        <ele>1975</ele>
        <time>2021-11-05T13:14:25Z</time>
      </trkpt>
      <trkpt lat="42.8352" lon="0.20567">
        <ele>1970</ele>
        <time>2021-11-05T13:14:42Z</time>
      </trkpt>
      <trkpt lat="42.83511" lon="0.20563">
        <ele>1966</ele>
        <time>2021-11-05T13:14:49Z</time>
      </trkpt>
      <trkpt lat="42.83504" lon="0.20562">
        <ele>1964</ele>
        <time>2021-11-05T13:14:55Z</time>
      </trkpt>
      <trkpt lat="42.83496" lon="0.20565">
        <ele>1963</ele>
        <time>2021-11-05T13:15:02Z</time>
      </trkpt>
      <trkpt lat="42.83491" lon="0.20575">
        <ele>1967</ele>
        <time>2021-11-05T13:15:09Z</time>
      </trkpt>
      <trkpt lat="42.83486" lon="0.20593">
        <ele>1974</ele>
        <time>2021-11-05T13:15:20Z</time>
      </trkpt>
      <trkpt lat="42.83473" lon="0.20609">
        <ele>1977</ele>
        <time>2021-11-05T13:15:34Z</time>
      </trkpt>
      <trkpt lat="42.8346" lon="0.20621">
        <ele>1978</ele>
        <time>2021-11-05T13:15:47Z</time>
      </trkpt>
      <trkpt lat="42.83446" lon="0.2063">
        <ele>1978</ele>
        <time>2021-11-05T13:15:59Z</time>
      </trkpt>
      <trkpt lat="42.83431" lon="0.20648">
        <ele>1982</ele>
        <time>2021-11-05T13:16:15Z</time>
      </trkpt>
      <trkpt lat="42.83426" lon="0.2065">
        <ele>1981</ele>
        <time>2021-11-05T13:16:19Z</time>
      </trkpt>
      <trkpt lat="42.83422" lon="0.20656">
        <ele>1983</ele>
        <time>2021-11-05T13:16:24Z</time>
      </trkpt>
      <trkpt lat="42.83405" lon="0.20667">
        <ele>1984</ele>
        <time>2021-11-05T13:16:39Z</time>
      </trkpt>
      <trkpt lat="42.83386" lon="0.20683">
        <ele>1989</ele>
        <time>2021-11-05T13:16:57Z</time>
      </trkpt>
      <trkpt lat="42.8338" lon="0.20692">
        <ele>1992</ele>
        <time>2021-11-05T13:17:04Z</time>
      </trkpt>
      <trkpt lat="42.83356" lon="0.20698">
        <ele>1991</ele>
        <time>2021-11-05T13:17:24Z</time>
      </trkpt>
      <trkpt lat="42.83333" lon="0.20716">
        <ele>1996</ele>
        <time>2021-11-05T13:17:45Z</time>
      </trkpt>
      <trkpt lat="42.83327" lon="0.20713">
        <ele>1995</ele>
        <time>2021-11-05T13:17:50Z</time>
      </trkpt>
      <trkpt lat="42.83324" lon="0.20707">
        <ele>1992</ele>
        <time>2021-11-05T13:17:54Z</time>
      </trkpt>
      <trkpt lat="42.83299" lon="0.20708">
        <ele>1991</ele>
        <time>2021-11-05T13:18:14Z</time>
      </trkpt>
      <trkpt lat="42.83289" lon="0.20711">
        <ele>1992</ele>
        <time>2021-11-05T13:18:22Z</time>
      </trkpt>
      <trkpt lat="42.83273" lon="0.20722">
        <ele>1998</ele>
        <time>2021-11-05T13:18:37Z</time>
      </trkpt>
      <trkpt lat="42.83261" lon="0.20727">
        <ele>2000</ele>
        <time>2021-11-05T13:18:47Z</time>
      </trkpt>
      <trkpt lat="42.83232" lon="0.20733">
        <ele>1999</ele>
        <time>2021-11-05T13:19:10Z</time>
      </trkpt>
      <trkpt lat="42.83214" lon="0.20743">
        <ele>2000</ele>
        <time>2021-11-05T13:19:26Z</time>
      </trkpt>
      <trkpt lat="42.8319" lon="0.2076">
        <ele>2002</ele>
        <time>2021-11-05T13:19:48Z</time>
      </trkpt>
      <trkpt lat="42.83185" lon="0.2077">
        <ele>2005</ele>
        <time>2021-11-05T13:19:55Z</time>
      </trkpt>
      <trkpt lat="42.83182" lon="0.20772">
        <ele>2004</ele>
        <time>2021-11-05T13:19:57Z</time>
      </trkpt>
      <trkpt lat="42.83179" lon="0.2077">
        <ele>2003</ele>
        <time>2021-11-05T13:20:00Z</time>
      </trkpt>
      <trkpt lat="42.83166" lon="0.20781">
        <ele>2003</ele>
        <time>2021-11-05T13:20:12Z</time>
      </trkpt>
      <trkpt lat="42.83157" lon="0.20798">
        <ele>2007</ele>
        <time>2021-11-05T13:20:25Z</time>
      </trkpt>
      <trkpt lat="42.83151" lon="0.20799">
        <ele>2005</ele>
        <time>2021-11-05T13:20:29Z</time>
      </trkpt>
      <trkpt lat="42.83113" lon="0.20834">
        <ele>2008</ele>
        <time>2021-11-05T13:21:06Z</time>
      </trkpt>
      <trkpt lat="42.83091" lon="0.20846">
        <ele>2007</ele>
        <time>2021-11-05T13:21:25Z</time>
      </trkpt>
      <trkpt lat="42.83085" lon="0.20851">
        <ele>2007</ele>
        <time>2021-11-05T13:21:31Z</time>
      </trkpt>
      <trkpt lat="42.83079" lon="0.20852">
        <ele>2006</ele>
        <time>2021-11-05T13:21:36Z</time>
      </trkpt>
      <trkpt lat="42.83074" lon="0.20861">
        <ele>2008</ele>
        <time>2021-11-05T13:21:42Z</time>
      </trkpt>
      <trkpt lat="42.83068" lon="0.20868">
        <ele>2009</ele>
        <time>2021-11-05T13:21:48Z</time>
      </trkpt>
      <trkpt lat="42.83033" lon="0.20893">
        <ele>2008</ele>
        <time>2021-11-05T13:22:20Z</time>
      </trkpt>
      <trkpt lat="42.83018" lon="0.20906">
        <ele>2008</ele>
        <time>2021-11-05T13:22:34Z</time>
      </trkpt>
      <trkpt lat="42.82996" lon="0.20929">
        <ele>2008</ele>
        <time>2021-11-05T13:22:57Z</time>
      </trkpt>
      <trkpt lat="42.82993" lon="0.20936">
        <ele>2010</ele>
        <time>2021-11-05T13:23:01Z</time>
      </trkpt>
      <trkpt lat="42.82955" lon="0.20968">
        <ele>2008</ele>
        <time>2021-11-05T13:23:37Z</time>
      </trkpt>
      <trkpt lat="42.82906" lon="0.21032">
        <ele>2012</ele>
        <time>2021-11-05T13:24:31Z</time>
      </trkpt>
      <trkpt lat="42.82901" lon="0.21046">
        <ele>2016</ele>
        <time>2021-11-05T13:24:41Z</time>
      </trkpt>
      <trkpt lat="42.82898" lon="0.2107">
        <ele>2023</ele>
        <time>2021-11-05T13:24:55Z</time>
      </trkpt>
      <trkpt lat="42.82895" lon="0.21077">
        <ele>2024</ele>
        <time>2021-11-05T13:25:00Z</time>
      </trkpt>
      <trkpt lat="42.82884" lon="0.21092">
        <ele>2024</ele>
        <time>2021-11-05T13:25:12Z</time>
      </trkpt>
      <trkpt lat="42.82871" lon="0.21103">
        <ele>2022</ele>
        <time>2021-11-05T13:25:24Z</time>
      </trkpt>
      <trkpt lat="42.82863" lon="0.21119">
        <ele>2021</ele>
        <time>2021-11-05T13:25:36Z</time>
      </trkpt>
      <trkpt lat="42.82858" lon="0.21125">
        <ele>2021</ele>
        <time>2021-11-05T13:25:41Z</time>
      </trkpt>
      <trkpt lat="42.82853" lon="0.21139">
        <ele>2021</ele>
        <time>2021-11-05T13:25:50Z</time>
      </trkpt>
      <trkpt lat="42.8283" lon="0.21166">
        <ele>2018</ele>
        <time>2021-11-05T13:26:14Z</time>
      </trkpt>
      <trkpt lat="42.82827" lon="0.21184">
        <ele>2019</ele>
        <time>2021-11-05T13:26:25Z</time>
      </trkpt>
      <trkpt lat="42.82825" lon="0.21209">
        <ele>2021</ele>
        <time>2021-11-05T13:26:40Z</time>
      </trkpt>
      <trkpt lat="42.82823" lon="0.21218">
        <ele>2022</ele>
        <time>2021-11-05T13:26:46Z</time>
      </trkpt>
      <trkpt lat="42.8281" lon="0.21254">
        <ele>2022</ele>
        <time>2021-11-05T13:27:09Z</time>
      </trkpt>
      <trkpt lat="42.828" lon="0.21273">
        <ele>2022</ele>
        <time>2021-11-05T13:27:23Z</time>
      </trkpt>
      <trkpt lat="42.82799" lon="0.21279">
        <ele>2022</ele>
        <time>2021-11-05T13:27:27Z</time>
      </trkpt>
      <trkpt lat="42.82796" lon="0.21307">
        <ele>2023</ele>
        <time>2021-11-05T13:27:43Z</time>
      </trkpt>
      <trkpt lat="42.82794" lon="0.21361">
        <ele>2026</ele>
        <time>2021-11-05T13:28:15Z</time>
      </trkpt>
      <trkpt lat="42.82795" lon="0.21397">
        <ele>2028</ele>
        <time>2021-11-05T13:28:36Z</time>
      </trkpt>
      <trkpt lat="42.8279" lon="0.21438">
        <ele>2028</ele>
        <time>2021-11-05T13:29:00Z</time>
      </trkpt>
      <trkpt lat="42.82788" lon="0.21442">
        <ele>2028</ele>
        <time>2021-11-05T13:29:03Z</time>
      </trkpt>
      <trkpt lat="42.82786" lon="0.21475">
        <ele>2028</ele>
        <time>2021-11-05T13:29:23Z</time>
      </trkpt>
      <trkpt lat="42.82788" lon="0.21499">
        <ele>2029</ele>
        <time>2021-11-05T13:29:37Z</time>
      </trkpt>
      <trkpt lat="42.82786" lon="0.21521">
        <ele>2029</ele>
        <time>2021-11-05T13:29:50Z</time>
      </trkpt>
      <trkpt lat="42.82782" lon="0.21545">
        <ele>2028</ele>
        <time>2021-11-05T13:30:04Z</time>
      </trkpt>
      <trkpt lat="42.82781" lon="0.21638">
        <ele>2027</ele>
        <time>2021-11-05T13:30:59Z</time>
      </trkpt>
      <trkpt lat="42.82776" lon="0.21673">
        <ele>2025</ele>
        <time>2021-11-05T13:31:20Z</time>
      </trkpt>
      <trkpt lat="42.82771" lon="0.21695">
        <ele>2025</ele>
        <time>2021-11-05T13:31:33Z</time>
      </trkpt>
      <trkpt lat="42.82768" lon="0.21701">
        <ele>2025</ele>
        <time>2021-11-05T13:31:38Z</time>
      </trkpt>
      <trkpt lat="42.82773" lon="0.21667">
        <ele>2024</ele>
        <time>2021-11-05T13:31:58Z</time>
      </trkpt>
      <trkpt lat="42.82774" lon="0.21642">
        <ele>2025</ele>
        <time>2021-11-05T13:32:13Z</time>
      </trkpt>
      <trkpt lat="42.82774" lon="0.21572">
        <ele>2026</ele>
        <time>2021-11-05T13:32:54Z</time>
      </trkpt>
      <trkpt lat="42.8277" lon="0.21536">
        <ele>2024</ele>
        <time>2021-11-05T13:33:15Z</time>
      </trkpt>
      <trkpt lat="42.82772" lon="0.215">
        <ele>2024</ele>
        <time>2021-11-05T13:33:36Z</time>
      </trkpt>
      <trkpt lat="42.82769" lon="0.21459">
        <ele>2023</ele>
        <time>2021-11-05T13:34:01Z</time>
      </trkpt>
      <trkpt lat="42.82775" lon="0.21402">
        <ele>2023</ele>
        <time>2021-11-05T13:34:34Z</time>
      </trkpt>
      <trkpt lat="42.82779" lon="0.21346">
        <ele>2022</ele>
        <time>2021-11-05T13:35:08Z</time>
      </trkpt>
      <trkpt lat="42.82779" lon="0.21326">
        <ele>2021</ele>
        <time>2021-11-05T13:35:19Z</time>
      </trkpt>
      <trkpt lat="42.82778" lon="0.2131">
        <ele>2020</ele>
        <time>2021-11-05T13:35:29Z</time>
      </trkpt>
      <trkpt lat="42.82768" lon="0.21251">
        <ele>2015</ele>
        <time>2021-11-05T13:36:04Z</time>
      </trkpt>
      <trkpt lat="42.82763" lon="0.2123">
        <ele>2014</ele>
        <time>2021-11-05T13:36:17Z</time>
      </trkpt>
      <trkpt lat="42.82742" lon="0.21176">
        <ele>2011</ele>
        <time>2021-11-05T13:36:53Z</time>
      </trkpt>
      <trkpt lat="42.82703" lon="0.2111">
        <ele>2000</ele>
        <time>2021-11-05T13:37:43Z</time>
      </trkpt>
      <trkpt lat="42.82685" lon="0.21086">
        <ele>1996</ele>
        <time>2021-11-05T13:38:03Z</time>
      </trkpt>
      <trkpt lat="42.82653" lon="0.21058">
        <ele>1989</ele>
        <time>2021-11-05T13:38:33Z</time>
      </trkpt>
      <trkpt lat="42.82648" lon="0.21051">
        <ele>1987</ele>
        <time>2021-11-05T13:38:39Z</time>
      </trkpt>
      <trkpt lat="42.82649" lon="0.21036">
        <ele>1985</ele>
        <time>2021-11-05T13:38:48Z</time>
      </trkpt>
      <trkpt lat="42.82676" lon="0.21003">
        <ele>1984</ele>
        <time>2021-11-05T13:39:17Z</time>
      </trkpt>
      <trkpt lat="42.82681" lon="0.20998">
        <ele>1983</ele>
        <time>2021-11-05T13:39:22Z</time>
      </trkpt>
      <trkpt lat="42.8269" lon="0.21">
        <ele>1983</ele>
        <time>2021-11-05T13:39:29Z</time>
      </trkpt>
      <trkpt lat="42.82695" lon="0.20999">
        <ele>1983</ele>
        <time>2021-11-05T13:39:33Z</time>
      </trkpt>
      <trkpt lat="42.82706" lon="0.20982">
        <ele>1978</ele>
        <time>2021-11-05T13:39:47Z</time>
      </trkpt>
      <trkpt lat="42.82717" lon="0.2097">
        <ele>1974</ele>
        <time>2021-11-05T13:39:58Z</time>
      </trkpt>
      <trkpt lat="42.82755" lon="0.20941">
        <ele>1966</ele>
        <time>2021-11-05T13:40:33Z</time>
      </trkpt>
      <trkpt lat="42.82773" lon="0.20931">
        <ele>1965</ele>
        <time>2021-11-05T13:40:48Z</time>
      </trkpt>
      <trkpt lat="42.82803" lon="0.2092">
        <ele>1963</ele>
        <time>2021-11-05T13:41:13Z</time>
      </trkpt>
      <trkpt lat="42.82825" lon="0.20908">
        <ele>1961</ele>
        <time>2021-11-05T13:41:32Z</time>
      </trkpt>
      <trkpt lat="42.82835" lon="0.20907">
        <ele>1961</ele>
        <time>2021-11-05T13:41:40Z</time>
      </trkpt>
      <trkpt lat="42.82842" lon="0.20912">
        <ele>1964</ele>
        <time>2021-11-05T13:41:47Z</time>
      </trkpt>
      <trkpt lat="42.82847" lon="0.20911">
        <ele>1964</ele>
        <time>2021-11-05T13:41:51Z</time>
      </trkpt>
      <trkpt lat="42.8285" lon="0.20908">
        <ele>1963</ele>
        <time>2021-11-05T13:41:54Z</time>
      </trkpt>
      <trkpt lat="42.82851" lon="0.20899">
        <ele>1960</ele>
        <time>2021-11-05T13:41:59Z</time>
      </trkpt>
      <trkpt lat="42.82854" lon="0.20887">
        <ele>1956</ele>
        <time>2021-11-05T13:42:06Z</time>
      </trkpt>
      <trkpt lat="42.82859" lon="0.20879">
        <ele>1954</ele>
        <time>2021-11-05T13:42:13Z</time>
      </trkpt>
      <trkpt lat="42.82879" lon="0.20873">
        <ele>1955</ele>
        <time>2021-11-05T13:42:29Z</time>
      </trkpt>
      <trkpt lat="42.82888" lon="0.20855">
        <ele>1950</ele>
        <time>2021-11-05T13:42:42Z</time>
      </trkpt>
      <trkpt lat="42.82912" lon="0.2083">
        <ele>1944</ele>
        <time>2021-11-05T13:43:06Z</time>
      </trkpt>
      <trkpt lat="42.82926" lon="0.2082">
        <ele>1943</ele>
        <time>2021-11-05T13:43:19Z</time>
      </trkpt>
      <trkpt lat="42.82928" lon="0.20816">
        <ele>1941</ele>
        <time>2021-11-05T13:43:21Z</time>
      </trkpt>
      <trkpt lat="42.82928" lon="0.20811">
        <ele>1939</ele>
        <time>2021-11-05T13:43:24Z</time>
      </trkpt>
      <trkpt lat="42.82924" lon="0.20808">
        <ele>1937</ele>
        <time>2021-11-05T13:43:28Z</time>
      </trkpt>
      <trkpt lat="42.82914" lon="0.20807">
        <ele>1934</ele>
        <time>2021-11-05T13:43:36Z</time>
      </trkpt>
      <trkpt lat="42.82873" lon="0.20792">
        <ele>1923</ele>
        <time>2021-11-05T13:44:10Z</time>
      </trkpt>
      <trkpt lat="42.82858" lon="0.20794">
        <ele>1922</ele>
        <time>2021-11-05T13:44:22Z</time>
      </trkpt>
      <trkpt lat="42.82832" lon="0.20787">
        <ele>1917</ele>
        <time>2021-11-05T13:44:43Z</time>
      </trkpt>
      <trkpt lat="42.82828" lon="0.20784">
        <ele>1916</ele>
        <time>2021-11-05T13:44:47Z</time>
      </trkpt>
      <trkpt lat="42.82816" lon="0.2076">
        <ele>1907</ele>
        <time>2021-11-05T13:45:04Z</time>
      </trkpt>
      <trkpt lat="42.82803" lon="0.20745">
        <ele>1903</ele>
        <time>2021-11-05T13:45:18Z</time>
      </trkpt>
      <trkpt lat="42.82781" lon="0.20724">
        <ele>1898</ele>
        <time>2021-11-05T13:45:39Z</time>
      </trkpt>
      <trkpt lat="42.82778" lon="0.20717">
        <ele>1897</ele>
        <time>2021-11-05T13:45:44Z</time>
      </trkpt>
      <trkpt lat="42.82777" lon="0.20709">
        <ele>1894</ele>
        <time>2021-11-05T13:45:49Z</time>
      </trkpt>
      <trkpt lat="42.82779" lon="0.20692">
        <ele>1889</ele>
        <time>2021-11-05T13:45:59Z</time>
      </trkpt>
      <trkpt lat="42.82792" lon="0.20674">
        <ele>1882</ele>
        <time>2021-11-05T13:46:14Z</time>
      </trkpt>
      <trkpt lat="42.82792" lon="0.20662">
        <ele>1878</ele>
        <time>2021-11-05T13:46:21Z</time>
      </trkpt>
      <trkpt lat="42.8279" lon="0.20655">
        <ele>1876</ele>
        <time>2021-11-05T13:46:25Z</time>
      </trkpt>
      <trkpt lat="42.82786" lon="0.20649">
        <ele>1875</ele>
        <time>2021-11-05T13:46:30Z</time>
      </trkpt>
      <trkpt lat="42.82788" lon="0.20643">
        <ele>1872</ele>
        <time>2021-11-05T13:46:34Z</time>
      </trkpt>
      <trkpt lat="42.82797" lon="0.20637">
        <ele>1868</ele>
        <time>2021-11-05T13:46:42Z</time>
      </trkpt>
      <trkpt lat="42.82806" lon="0.20634">
        <ele>1866</ele>
        <time>2021-11-05T13:46:49Z</time>
      </trkpt>
      <trkpt lat="42.82814" lon="0.20638">
        <ele>1866</ele>
        <time>2021-11-05T13:46:56Z</time>
      </trkpt>
      <trkpt lat="42.82828" lon="0.20649">
        <ele>1867</ele>
        <time>2021-11-05T13:47:09Z</time>
      </trkpt>
      <trkpt lat="42.82837" lon="0.20646">
        <ele>1866</ele>
        <time>2021-11-05T13:47:16Z</time>
      </trkpt>
      <trkpt lat="42.82849" lon="0.20625">
        <ele>1859</ele>
        <time>2021-11-05T13:47:32Z</time>
      </trkpt>
      <trkpt lat="42.82851" lon="0.20605">
        <ele>1853</ele>
        <time>2021-11-05T13:47:44Z</time>
      </trkpt>
      <trkpt lat="42.82848" lon="0.20597">
        <ele>1850</ele>
        <time>2021-11-05T13:47:49Z</time>
      </trkpt>
      <trkpt lat="42.82841" lon="0.20588">
        <ele>1847</ele>
        <time>2021-11-05T13:47:57Z</time>
      </trkpt>
      <trkpt lat="42.82824" lon="0.20573">
        <ele>1843</ele>
        <time>2021-11-05T13:48:13Z</time>
      </trkpt>
      <trkpt lat="42.82777" lon="0.20551">
        <ele>1837</ele>
        <time>2021-11-05T13:48:53Z</time>
      </trkpt>
      <trkpt lat="42.82762" lon="0.20548">
        <ele>1836</ele>
        <time>2021-11-05T13:49:05Z</time>
      </trkpt>
      <trkpt lat="42.8274" lon="0.20552">
        <ele>1837</ele>
        <time>2021-11-05T13:49:23Z</time>
      </trkpt>
      <trkpt lat="42.82724" lon="0.20558">
        <ele>1835</ele>
        <time>2021-11-05T13:49:36Z</time>
      </trkpt>
      <trkpt lat="42.82697" lon="0.20576">
        <ele>1835</ele>
        <time>2021-11-05T13:50:00Z</time>
      </trkpt>
      <trkpt lat="42.82678" lon="0.20585">
        <ele>1833</ele>
        <time>2021-11-05T13:50:16Z</time>
      </trkpt>
      <trkpt lat="42.82666" lon="0.20593">
        <ele>1835</ele>
        <time>2021-11-05T13:50:27Z</time>
      </trkpt>
      <trkpt lat="42.82597" lon="0.20648">
        <ele>1836</ele>
        <time>2021-11-05T13:51:31Z</time>
      </trkpt>
      <trkpt lat="42.82584" lon="0.2066">
        <ele>1835</ele>
        <time>2021-11-05T13:51:44Z</time>
      </trkpt>
      <trkpt lat="42.82541" lon="0.20707">
        <ele>1842</ele>
        <time>2021-11-05T13:52:28Z</time>
      </trkpt>
      <trkpt lat="42.82505" lon="0.20741">
        <ele>1840</ele>
        <time>2021-11-05T13:53:03Z</time>
      </trkpt>
      <trkpt lat="42.82475" lon="0.20752">
        <ele>1835</ele>
        <time>2021-11-05T13:53:28Z</time>
      </trkpt>
      <trkpt lat="42.82474" lon="0.20749">
        <ele>1834</ele>
        <time>2021-11-05T13:53:30Z</time>
      </trkpt>
      <trkpt lat="42.82473" lon="0.20732">
        <ele>1829</ele>
        <time>2021-11-05T13:53:40Z</time>
      </trkpt>
      <trkpt lat="42.82468" lon="0.20731">
        <ele>1827</ele>
        <time>2021-11-05T13:53:44Z</time>
      </trkpt>
      <trkpt lat="42.82463" lon="0.20732">
        <ele>1827</ele>
        <time>2021-11-05T13:53:48Z</time>
      </trkpt>
      <trkpt lat="42.82456" lon="0.20725">
        <ele>1823</ele>
        <time>2021-11-05T13:53:55Z</time>
      </trkpt>
      <trkpt lat="42.82444" lon="0.20732">
        <ele>1822</ele>
        <time>2021-11-05T13:54:05Z</time>
      </trkpt>
    </trkseg>
  </trk>
</gpx>